FW6434 Weather Reports


time (UTC)temp
C
wind
direction
speed
KPH
gust
KPH
rain 1hr
cm
rain 24hr
cm
rain mn
cm
humidity
%
barometer
mb
20260901175955 17 143 0.0 0.0 0.00 0.00 0.00 79 1019.3
20260901175939 17 143 0.0 0.0 0.00 0.00 0.00 79 1019.2
20260901175906 17 143 0.0 0.0 0.00 0.00 0.00 79 1019.4
20260901175623 17 143 0.0 0.0 0.00 0.00 0.00 79 1019.3
20260901175453 17 143 0.0 0.0 0.00 0.00 0.00 79 1019.1
20260901175429 17 143 0.0 0.0 0.00 0.00 0.00 78 1019.3
20260901175412 17 122 0.0 0.0 0.00 0.00 0.00 78 1019.1
20260901175358 17 114 0.0 0.0 0.00 0.00 0.00 78 1019.1
20260901175350 17 162 0.0 0.0 0.00 0.00 0.00 78 1019.2
20260901175114 17 122 0.0 0.0 0.00 0.00 0.00 78 1019.1
20260901174753 17 122 0.0 0.0 0.00 0.00 0.00 78 1019.2
20260901174714 17 114 0.0 0.0 0.00 0.00 0.00 78 1019.2
20260901174653 17 122 0.0 0.0 0.00 0.00 0.00 78 1019.1
20260901174553 17 122 0.0 0.0 0.00 0.00 0.00 78 1019.1
20260901174516 18 122 0.0 0.0 0.00 0.00 0.00 76 1018.9
20260901174510 18 268 0.0 0.0 0.00 0.00 0.00 76 1019.1
20260901174504 17 122 0.0 0.0 0.00 0.00 0.00 77 1019.2
20260901174447 17 122 0.0 0.0 0.00 0.00 0.00 77 1019.0
20260901174418 17 122 0.0 0.0 0.00 0.00 0.00 77 1019.0
20260901174409 17 122 0.0 0.0 0.00 0.00 0.00 77 1019.2
20260901174354 17 122 0.0 0.0 0.00 0.00 0.00 77 1019.0
20260901174337 18 122 0.0 0.0 0.00 0.00 0.00 77 1019.1
20260901174320 18 122 0.0 0.0 0.00 0.00 0.00 76 1019.0
20260901174303 18 122 0.0 0.0 0.00 0.00 0.00 76 1018.9
20260901174034 18 122 0.0 0.0 0.00 0.00 0.00 76 1019.2
20260901173758 18 268 0.0 0.0 0.00 0.00 0.00 76 1019.0
20260901173743 18 268 0.0 0.0 0.00 0.00 0.00 76 1019.1
20260901173728 18 268 0.0 0.0 0.00 0.00 0.00 76 1019.1
20260901173240 18 114 0.0 0.0 0.00 0.00 0.00 76 1019.0
20260901173224 18 114 0.0 0.0 0.00 0.00 0.00 76 1019.3
20260901172727 18 122 0.0 0.0 0.00 0.00 0.00 75 1019.2
20260901172630 18 191 0.0 0.0 0.00 0.00 0.00 75 1019.3
20260901172529 18 197 0.0 0.0 0.00 0.00 0.00 75 1019.2
20260901172429 18 203 0.0 0.0 0.00 0.00 0.00 75 1019.3
20260901172330 18 192 0.0 0.0 0.00 0.00 0.00 75 1019.0
20260901172229 18 195 0.0 0.0 0.00 0.00 0.00 75 1019.0
20260901172213 18 195 0.0 0.0 0.00 0.00 0.00 74 1019.0
20260901172153 18 196 0.0 0.0 0.00 0.00 0.00 74 1018.9
20260901172137 18 196 0.0 0.0 0.00 0.00 0.00 74 1018.9
20260901171818 18 196 0.0 0.0 0.00 0.00 0.00 74 1019.2
20260901171754 18 196 0.0 0.0 0.00 0.00 0.00 74 1019.0
20260901171738 18 196 0.0 0.0 0.00 0.00 0.00 74 1019.0
20260901171418 19 196 0.0 0.0 0.00 0.00 0.00 73 1019.0
20260901171317 19 196 0.0 0.0 0.00 0.00 0.00 73 1019.0
20260901171217 19 196 0.0 0.0 0.00 0.00 0.00 73 1019.1
20260901171118 19 196 0.0 1.6 0.00 0.00 0.00 73 1019.0
20260901171022 19 195 0.0 1.6 0.00 0.00 0.00 72 1018.8
20260901171018 19 196 0.0 1.6 0.00 0.00 0.00 73 1018.9
20260901171002 19 203 0.0 1.6 0.00 0.00 0.00 73 1018.9
20260901170946 19 195 0.0 1.6 0.00 0.00 0.00 73 1019.1
20260901170926 19 195 0.0 1.6 0.00 0.00 0.00 72 1018.8
20260901170656 19 195 0.0 1.6 0.00 0.00 0.00 72 1018.9
20260901170639 19 195 0.0 1.6 0.00 0.00 0.00 72 1019.0
20260901170318 19 196 0.0 1.6 0.00 0.00 0.00 72 1018.9
20260901170217 19 200 0.0 1.6 0.00 0.00 0.00 72 1019.1
20260901170156 19 196 0.0 0.0 0.00 0.00 0.00 72 1018.8
20260901170140 19 196 0.0 0.0 0.00 0.00 0.00 72 1018.9
20260901170124 20 195 0.0 0.0 0.00 0.00 0.00 72 1018.9
20260901165839 20 192 0.0 0.0 0.00 0.00 0.00 72 1018.9
20260901165518 20 195 0.0 0.0 0.00 0.00 0.00 71 1018.8
20260901165418 20 196 0.0 0.0 0.00 0.00 0.00 72 1018.9
20260901165318 20 196 0.0 0.0 0.00 0.00 0.00 72 1018.9
20260901165254 20 196 0.0 0.0 0.00 0.00 0.00 71 1018.9
20260901165238 20 196 0.0 0.0 0.00 0.00 0.00 72 1019.1
20260901164919 20 198 0.0 0.0 0.00 0.00 0.00 72 1019.2
20260901164817 20 199 0.0 0.0 0.00 0.00 0.00 72 1018.8
20260901164717 20 198 0.0 0.0 0.00 0.00 0.00 71 1018.9
20260901164112 20 194 0.0 1.6 0.00 0.00 0.00 71 1018.9
20260901164012 20 191 0.0 1.6 0.00 0.00 0.00 71 1019.0
20260901163956 20 198 0.0 1.6 0.00 0.00 0.00 71 1019.0
20260901163940 20 199 0.0 1.6 0.00 0.00 0.00 71 1019.0
20260901163926 20 199 0.0 1.6 0.00 0.00 0.00 71 1018.7
20260901163612 20 198 0.0 1.6 0.00 0.00 0.00 71 1019.1
20260901163513 20 193 0.0 1.6 0.00 0.00 0.00 71 1018.9
20260901163412 20 192 0.0 1.6 0.00 0.00 0.00 71 1018.8
20260901163318 20 203 0.0 1.6 0.00 0.00 0.00 70 1019.2
20260901163312 20 195 0.0 1.6 0.00 0.00 0.00 71 1018.7
20260901163258 20 199 0.0 1.6 0.00 0.00 0.00 71 1018.7
20260901163250 20 197 0.0 1.6 0.00 0.00 0.00 71 1018.8
20260901163234 20 199 0.0 1.6 0.00 0.00 0.00 71 1018.8
20260901163217 20 198 0.0 1.6 0.00 0.00 0.00 70 1018.9
20260901163201 20 191 0.0 1.6 0.00 0.00 0.00 71 1018.9
20260901163145 20 191 0.0 1.6 0.00 0.00 0.00 70 1019.2
20260901162613 20 199 0.0 1.6 0.00 0.00 0.00 70 1018.8
20260901162512 20 201 0.0 1.6 0.00 0.00 0.00 70 1019.0
20260901162412 20 199 0.0 1.6 0.00 0.00 0.00 70 1019.0
20260901162311 20 195 0.0 1.6 0.00 0.00 0.00 70 1018.8
20260901162231 20 195 0.0 1.6 0.00 0.00 0.00 70 1018.8
20260901162212 20 195 0.0 1.6 0.00 0.00 0.00 70 1018.8
20260901162150 20 204 0.0 0.0 0.00 0.00 0.00 71 1019.0
20260901162141 20 194 0.0 1.6 0.00 0.00 0.00 70 1018.8
20260901162125 20 194 0.0 1.6 0.00 0.00 0.00 70 1018.9
20260901162110 20 191 0.0 1.6 0.00 0.00 0.00 71 1018.8
20260901162054 20 197 0.0 1.6 0.00 0.00 0.00 71 1019.0
20260901161825 20 201 0.0 0.0 0.00 0.00 0.00 71 1019.0
20260901161808 20 198 0.0 0.0 0.00 0.00 0.00 70 1018.7
20260901161532 20 191 0.0 1.6 0.00 0.00 0.00 70 1019.1
20260901161233 20 198 0.0 1.6 0.00 0.00 0.00 70 1018.8
20260901161211 20 199 0.0 1.6 0.00 0.00 0.00 70 1018.8
20260901161111 20 196 0.0 1.6 0.00 0.00 0.00 70 1019.0
20260901161011 20 194 0.0 1.6 0.00 0.00 0.00 70 1018.7
20260901160912 20 192 0.0 1.6 0.00 0.00 0.00 70 1019.0
20260901160849 20 198 0.0 1.6 0.00 0.00 0.00 69 1018.9
20260901160835 20 194 0.0 1.6 0.00 0.00 0.00 69 1018.9
20260901160825 20 193 0.0 1.6 0.00 0.00 0.00 69 1018.9
20260901160809 20 196 0.0 1.6 0.00 0.00 0.00 69 1018.8
20260901160754 20 193 0.0 1.6 0.00 0.00 0.00 69 1019.0
20260901160303 20 203 0.0 1.6 0.00 0.00 0.00 69 1019.0
20260901160257 20 189 0.0 3.2 0.00 0.00 0.00 70 1018.9
20260901160249 20 190 0.0 1.6 0.00 0.00 0.00 69 1018.8
20260901160242 20 198 0.0 1.6 0.00 0.00 0.00 69 1019.0
20260901160226 20 197 0.0 1.6 0.00 0.00 0.00 69 1019.0
20260901160210 20 200 0.0 1.6 0.00 0.00 0.00 69 1018.8
20260901160154 20 194 0.0 3.2 0.00 0.00 0.00 69 1018.8
20260901160138 20 190 0.0 3.2 0.00 0.00 0.00 70 1018.9
20260901155909 20 157 0.0 3.2 0.00 0.00 0.00 70 1018.9
20260901155649 20 193 0.0 3.2 0.00 0.00 0.00 69 1018.7
20260901155641 20 195 0.0 3.2 0.00 0.00 0.00 69 1018.7
20260901155625 20 198 0.0 3.2 0.00 0.00 0.00 70 1018.7
20260901155609 20 195 0.0 3.2 0.00 0.00 0.00 69 1018.8
20260901155553 20 189 0.0 3.2 0.00 0.00 0.00 69 1018.9
20260901155537 20 120 0.0 3.2 0.00 0.00 0.00 69 1018.9
20260901155309 20 194 0.0 3.2 0.00 0.00 0.00 69 1018.8
20260901155254 20 140 0.0 3.2 0.00 0.00 0.00 70 1019.0
20260901155018 20 41 1.6 3.2 0.00 0.00 0.00 69 1019.0
20260901154749 20 194 0.0 1.6 0.00 0.00 0.00 69 1018.9
20260901154733 20 201 1.6 3.2 0.00 0.00 0.00 69 1018.9
20260901154717 20 190 0.0 3.2 0.00 0.00 0.00 69 1019.0
20260901154659 20 178 0.0 3.2 0.00 0.00 0.00 69 1019.0
20260901154644 20 201 0.0 3.2 0.00 0.00 0.00 69 1018.7
20260901154111 20 191 0.0 3.2 0.00 0.00 0.00 69 1018.8
20260901154011 20 188 0.0 3.2 0.00 0.00 0.00 69 1019.1
20260901153958 20 194 0.0 3.2 0.00 0.00 0.00 69 1018.7
20260901153953 20 192 0.0 3.2 0.00 0.00 0.00 69 1018.9
20260901153944 20 187 0.0 3.2 0.00 0.00 0.00 69 1019.0
20260901153929 20 201 0.0 3.2 0.00 0.00 0.00 69 1018.9
20260901153914 20 193 0.0 3.2 0.00 0.00 0.00 69 1018.9
20260901153904 20 207 1.6 3.2 0.00 0.00 0.00 69 1018.9
20260901153640 20 173 1.6 3.2 0.00 0.00 0.00 68 1019.0
20260901153624 20 64 0.0 1.6 0.00 0.00 0.00 68 1018.8
20260901153608 20 187 0.0 3.2 0.00 0.00 0.00 69 1019.0
20260901153553 20 192 0.0 3.2 0.00 0.00 0.00 68 1018.9
20260901153325 20 194 0.0 3.2 0.00 0.00 0.00 69 1018.9
20260901153308 20 190 0.0 3.2 0.00 0.00 0.00 68 1018.9
20260901153252 20 179 0.0 3.2 0.00 0.00 0.00 69 1018.9
20260901153236 20 179 0.0 3.2 0.00 0.00 0.00 69 1018.8
20260901153220 20 192 0.0 3.2 0.00 0.00 0.00 69 1018.7
20260901152730 20 194 0.0 3.2 0.00 0.00 0.00 69 1018.7
20260901152454 21 187 0.0 3.2 0.00 0.00 0.00 69 1018.7
20260901152437 21 196 0.0 3.2 0.00 0.00 0.00 69 1018.8
20260901152422 21 211 0.0 3.2 0.00 0.00 0.00 69 1018.8
20260901152111 21 192 0.0 3.2 0.00 0.00 0.00 69 1018.8
20260901152010 21 193 0.0 3.2 0.00 0.00 0.00 69 1018.8
20260901151934 21 209 0.0 3.2 0.00 0.00 0.00 68 1018.9
20260901151927 21 193 0.0 3.2 0.00 0.00 0.00 68 1018.7
20260901151910 21 195 0.0 3.2 0.00 0.00 0.00 68 1018.7
20260901151856 21 195 0.0 3.2 0.00 0.00 0.00 68 1018.7
20260901151846 21 197 0.0 3.2 0.00 0.00 0.00 68 1018.9
20260901151830 21 203 0.0 3.2 0.00 0.00 0.00 68 1018.8
20260901151814 21 196 0.0 3.2 0.00 0.00 0.00 68 1018.8
20260901151758 21 177 0.0 3.2 0.00 0.00 0.00 68 1018.7
20260901151743 21 193 0.0 3.2 0.00 0.00 0.00 68 1018.9
20260901151515 21 196 0.0 3.2 0.00 0.00 0.00 68 1018.8
20260901151459 21 195 0.0 3.2 0.00 0.00 0.00 68 1018.8
20260901151002 21 203 0.0 3.2 0.00 0.00 0.00 69 1018.9
20260901150949 21 183 0.0 3.2 0.00 0.00 0.00 68 1018.9
20260901150937 21 191 0.0 3.2 0.00 0.00 0.00 69 1018.9
20260901150921 21 194 0.0 1.6 0.00 0.00 0.00 69 1018.7
20260901150905 21 180 0.0 1.6 0.00 0.00 0.00 69 1018.7
20260901150411 21 192 0.0 3.2 0.00 0.00 0.00 69 1018.5
20260901150057 21 175 0.0 4.8 0.00 0.00 0.00 69 1018.5
20260901150044 21 190 0.0 4.8 0.00 0.00 0.00 69 1018.8
20260901150035 21 191 0.0 4.8 0.00 0.00 0.00 69 1018.7
20260901150019 21 202 0.0 4.8 0.00 0.00 0.00 69 1018.5
20260901145745 21 201 0.0 4.8 0.00 0.00 0.00 69 1018.9
20260901145734 21 193 0.0 4.8 0.00 0.00 0.00 68 1018.7
20260901145718 21 189 0.0 4.8 0.00 0.00 0.00 68 1018.8
20260901145703 21 194 0.0 4.8 0.00 0.00 0.00 68 1018.9
20260901145645 21 111 1.6 4.8 0.00 0.00 0.00 68 1018.7
20260901145629 21 195 0.0 4.8 0.00 0.00 0.00 69 1018.8
20260901145057 21 187 0.0 3.2 0.00 0.00 0.00 68 1018.7
20260901144958 21 190 0.0 3.2 0.00 0.00 0.00 69 1018.7
20260901144859 21 195 0.0 3.2 0.00 0.00 0.00 68 1018.7
20260901144757 21 191 0.0 3.2 0.00 0.00 0.00 69 1018.5
20260901144730 21 193 0.0 3.2 0.00 0.00 0.00 69 1018.5
20260901144656 21 202 0.0 3.2 0.00 0.00 0.00 68 1018.2
20260901144558 21 188 0.0 3.2 0.00 0.00 0.00 69 1018.5
20260901144535 21 196 0.0 3.2 0.00 0.00 0.00 69 1018.8
20260901144519 21 195 0.0 3.2 0.00 0.00 0.00 69 1018.7
20260901144230 21 193 0.0 3.2 0.00 0.00 0.00 69 1018.8
20260901144157 21 187 0.0 6.4 0.00 0.00 0.00 69 1018.7
20260901144133 21 185 0.0 6.4 0.00 0.00 0.00 69 1018.5
20260901144117 21 205 1.6 6.4 0.00 0.00 0.00 69 1018.3
20260901144102 21 170 0.0 6.4 0.00 0.00 0.00 69 1018.7
20260901143829 21 184 0.0 6.4 0.00 0.00 0.00 69 1018.4
20260901143818 21 173 0.0 6.4 0.00 0.00 0.00 69 1018.5
20260901143457 21 194 0.0 6.4 0.00 0.00 0.00 68 1018.4
20260901143423 21 160 1.6 6.4 0.00 0.00 0.00 68 1018.8
20260901143412 21 258 1.6 6.4 0.00 0.00 0.00 69 1018.7
20260901143359 21 314 1.6 6.4 0.00 0.00 0.00 69 1018.7
20260901143158 21 183 0.0 3.2 0.00 0.00 0.00 68 1018.5
20260901143057 21 194 0.0 3.2 0.00 0.00 0.00 68 1018.5
20260901142957 21 198 0.0 3.2 0.00 0.00 0.00 68 1018.5
20260901142858 21 194 0.0 3.2 0.00 0.00 0.00 68 1018.7
20260901142758 21 195 0.0 3.2 0.00 0.00 0.00 68 1018.4
20260901142730 21 207 0.0 3.2 0.00 0.00 0.00 68 1018.4
20260901142658 21 198 0.0 3.2 0.00 0.00 0.00 69 1018.8
20260901142558 21 117 0.0 3.2 0.00 0.00 0.00 68 1018.7
20260901142458 21 204 1.6 3.2 0.00 0.00 0.00 68 1018.5
20260901142357 21 200 0.0 3.2 0.00 0.00 0.00 68 1018.8
20260901142257 21 215 1.6 3.2 0.00 0.00 0.00 68 1018.5
20260901142229 21 208 1.6 3.2 0.00 0.00 0.00 68 1018.5
20260901142157 21 208 0.0 3.2 0.00 0.00 0.00 68 1018.4
20260901142130 21 196 0.0 3.2 0.00 0.00 0.00 68 1018.8
20260901142114 21 187 0.0 3.2 0.00 0.00 0.00 68 1018.4
20260901142059 21 194 0.0 3.2 0.00 0.00 0.00 68 1018.4
20260901141826 21 197 0.0 3.2 0.00 0.00 0.00 69 1018.7
20260901141814 21 199 0.0 3.2 0.00 0.00 0.00 69 1018.7
20260901141758 21 198 0.0 3.2 0.00 0.00 0.00 68 1018.3
20260901141533 21 207 0.0 3.2 0.00 0.00 0.00 68 1018.5
20260901141516 21 201 0.0 3.2 0.00 0.00 0.00 68 1018.4
20260901141500 21 161 0.0 3.2 0.00 0.00 0.00 69 1018.4
20260901141237 21 194 1.6 3.2 0.00 0.00 0.00 69 1018.4
20260901141227 21 186 0.0 4.8 0.00 0.00 0.00 69 1018.4
20260901141211 21 203 0.0 4.8 0.00 0.00 0.00 68 1018.5
20260901141156 21 194 0.0 4.8 0.00 0.00 0.00 68 1018.3
20260901141140 21 195 0.0 4.8 0.00 0.00 0.00 68 1018.8
20260901141124 21 188 0.0 4.8 0.00 0.00 0.00 68 1018.5
20260901141111 21 135 0.0 4.8 0.00 0.00 0.00 67 1018.5
20260901140838 21 205 0.0 4.8 0.00 0.00 0.00 67 1018.5
20260901140601 21 199 0.0 4.8 0.00 0.00 0.00 67 1018.5
20260901140545 21 190 0.0 4.8 0.00 0.00 0.00 66 1018.5
20260901140319 21 194 0.0 3.2 0.00 0.00 0.00 67 1018.4
20260901140038 21 196 0.0 3.2 0.00 0.00 0.00 67 1018.8
20260901140019 21 205 1.6 3.2 0.00 0.00 0.00 66 1018.7
20260901135729 21 200 0.0 3.2 0.00 0.00 0.00 66 1018.5
20260901135658 21 235 1.6 3.2 0.00 0.00 0.00 67 1018.5
20260901135557 21 183 0.0 3.2 0.00 0.00 0.00 66 1018.5
20260901135458 21 191 0.0 3.2 0.00 0.00 0.00 66 1018.4
20260901135357 21 210 1.6 6.4 0.00 0.00 0.00 65 1018.7
20260901135257 21 193 0.0 6.4 0.00 0.00 0.00 66 1018.8
20260901135229 21 189 0.0 6.4 0.00 0.00 0.00 66 1018.8
20260901135156 22 193 0.0 6.4 0.00 0.00 0.00 66 1018.7
20260901135146 22 191 1.6 4.8 0.00 0.00 0.00 65 1018.7
20260901135137 22 198 0.0 6.4 0.00 0.00 0.00 65 1018.4
20260901135121 22 194 0.0 6.4 0.00 0.00 0.00 65 1018.7
20260901134841 22 189 0.0 6.4 0.00 0.00 0.00 65 1018.7
20260901134827 22 207 0.0 6.4 0.00 0.00 0.00 65 1018.7
20260901134816 22 198 0.0 6.4 0.00 0.00 0.00 64 1018.3
20260901134759 22 180 0.0 6.4 0.00 0.00 0.00 64 1018.9
20260901134743 22 177 0.0 3.2 0.00 0.00 0.00 64 1018.5
20260901134249 22 188 1.6 3.2 0.00 0.00 0.00 64 1018.3
20260901134240 22 184 0.0 3.2 0.00 0.00 0.00 64 1018.8
20260901134223 22 199 0.0 3.2 0.00 0.00 0.00 64 1018.3
20260901134209 22 200 0.0 3.2 0.00 0.00 0.00 64 1018.5
20260901134153 22 139 1.6 3.2 0.00 0.00 0.00 64 1018.5
20260901134137 22 200 1.6 3.2 0.00 0.00 0.00 63 1018.7
20260901134124 22 201 1.6 3.2 0.00 0.00 0.00 63 1018.7
20260901134113 22 219 1.6 4.8 0.00 0.00 0.00 63 1018.3
20260901134057 22 179 0.0 4.8 0.00 0.00 0.00 63 1018.5
20260901134041 22 187 0.0 4.8 0.00 0.00 0.00 63 1018.7
20260901133806 22 195 0.0 4.8 0.00 0.00 0.00 64 1018.5
20260901133753 22 152 1.6 4.8 0.00 0.00 0.00 64 1018.5
20260901133300 22 205 0.0 4.8 0.00 0.00 0.00 64 1018.5
20260901133244 22 201 0.0 4.8 0.00 0.00 0.00 65 1018.5
20260901133011 22 211 1.6 3.2 0.00 0.00 0.00 64 1018.7
20260901133000 22 202 0.0 3.2 0.00 0.00 0.00 64 1018.5
20260901132945 22 200 0.0 4.8 0.00 0.00 0.00 64 1018.7
20260901132929 22 199 0.0 4.8 0.00 0.00 0.00 64 1018.5
20260901132157 22 198 0.0 4.8 0.00 0.00 0.00 64 1018.4
20260901132057 22 83 3.2 4.8 0.00 0.00 0.00 63 1018.7
20260901131957 22 198 0.0 4.8 0.00 0.00 0.00 63 1018.7
20260901131941 22 197 1.6 4.8 0.00 0.00 0.00 63 1018.7
20260901131925 22 190 0.0 4.8 0.00 0.00 0.00 64 1018.5
20260901131912 22 167 1.6 4.8 0.00 0.00 0.00 64 1018.5
20260901131558 22 146 1.6 3.2 0.00 0.00 0.00 63 1018.7
20260901131457 22 218 1.6 3.2 0.00 0.00 0.00 63 1018.5
20260901131357 22 192 0.0 3.2 0.00 0.00 0.00 63 1018.7
20260901131257 21 198 0.0 3.2 0.00 0.00 0.00 64 1018.5
20260901131230 21 205 0.0 3.2 0.00 0.00 0.00 64 1018.5
20260901131157 21 193 0.0 3.2 0.00 0.00 0.00 65 1019.0
20260901131057 22 203 0.0 3.2 0.00 0.00 0.00 65 1018.8
20260901130957 22 195 1.6 3.2 0.00 0.00 0.00 65 1018.8
20260901130930 22 218 0.0 3.2 0.00 0.00 0.00 65 1018.7
20260901130914 22 182 0.0 3.2 0.00 0.00 0.00 65 1018.3
20260901130903 21 182 0.0 3.2 0.00 0.00 0.00 66 1018.3
20260901130545 21 182 0.0 6.4 0.00 0.00 0.00 66 1018.9
20260901130446 21 192 0.0 6.4 0.00 0.00 0.00 65 1018.8
20260901130346 22 202 0.0 6.4 0.00 0.00 0.00 65 1018.7
20260901130244 22 199 0.0 6.4 0.00 0.00 0.00 65 1018.7
20260901130145 22 202 0.0 6.4 0.00 0.00 0.00 64 1018.9
20260901130121 22 191 0.0 6.4 0.00 0.00 0.00 64 1018.8
20260901130105 22 196 0.0 6.4 0.00 0.00 0.00 64 1018.5
20260901125745 22 130 0.0 6.4 0.00 0.00 0.00 65 1018.9
20260901125730 22 196 0.0 6.4 0.00 0.00 0.00 65 1018.9
20260901125645 22 202 0.0 6.4 0.00 0.00 0.00 65 1018.8
20260901125544 21 197 0.0 3.2 0.00 0.00 0.00 67 1018.5
20260901125518 21 194 0.0 3.2 0.00 0.00 0.00 67 1018.5
20260901125502 21 214 1.6 3.2 0.00 0.00 0.00 67 1018.4
20260901125447 21 281 0.0 3.2 0.00 0.00 0.00 67 1018.7
20260901125435 21 94 1.6 3.2 0.00 0.00 0.00 67 1018.7
20260901125425 21 201 0.0 3.2 0.00 0.00 0.00 66 1018.7
20260901124847 21 192 0.0 3.2 0.00 0.00 0.00 67 1018.7
20260901124756 21 184 0.0 3.2 0.00 0.00 0.00 67 1018.8
20260901124729 21 168 0.0 3.2 0.00 0.00 0.00 67 1018.8
20260901124646 21 195 0.0 3.2 0.00 0.00 0.00 67 1018.7
20260901124557 21 188 0.0 3.2 0.00 0.00 0.00 67 1018.7
20260901124445 21 129 1.6 3.2 0.00 0.00 0.00 67 1018.8
20260901124345 21 161 0.0 3.2 0.00 0.00 0.00 66 1018.8
20260901124328 21 81 0.0 3.2 0.00 0.00 0.00 66 1018.5
20260901124316 21 198 0.0 3.2 0.00 0.00 0.00 66 1018.5
20260901124306 21 188 0.0 3.2 0.00 0.00 0.00 66 1018.8
20260901123959 21 194 0.0 4.8 0.00 0.00 0.00 67 1018.8
20260901123943 21 227 0.0 4.8 0.00 0.00 0.00 66 1018.5
20260901123916 21 197 0.0 4.8 0.00 0.00 0.00 66 1018.8
20260901123545 21 199 0.0 4.8 0.00 0.00 0.00 66 1018.8
20260901123446 21 169 1.6 4.8 0.00 0.00 0.00 66 1018.9
20260901123427 21 195 0.0 4.8 0.00 0.00 0.00 66 1018.9
20260901123411 21 203 0.0 4.8 0.00 0.00 0.00 66 1018.5
20260901123359 21 198 0.0 4.8 0.00 0.00 0.00 66 1018.5
20260901123045 21 203 3.2 4.8 0.00 0.00 0.00 67 1018.7
20260901122946 21 195 0.0 4.8 0.00 0.00 0.00 66 1018.5
20260901122846 21 141 1.6 4.8 0.00 0.00 0.00 66 1018.5
20260901122745 21 201 1.6 4.8 0.00 0.00 0.00 65 1018.8
20260901122733 21 204 1.6 4.8 0.00 0.00 0.00 65 1018.8
20260901122721 21 191 1.6 4.8 0.00 0.00 0.00 66 1018.7
20260901122706 21 303 0.0 4.8 0.00 0.00 0.00 65 1018.7
20260901122345 21 196 0.0 4.8 0.00 0.00 0.00 65 1018.5
20260901122245 21 193 1.6 4.8 0.00 0.00 0.00 64 1018.9
20260901122232 21 127 1.6 4.8 0.00 0.00 0.00 64 1018.9
20260901122221 21 85 1.6 4.8 0.00 0.00 0.00 64 1018.7
20260901122206 22 186 1.6 4.8 0.00 0.00 0.00 64 1018.7
20260901121845 22 197 0.0 6.4 0.00 0.00 0.00 63 1018.5
20260901121830 22 227 0.0 6.4 0.00 0.00 0.00 63 1018.7
20260901121818 22 227 0.0 6.4 0.00 0.00 0.00 63 1018.7
20260901121806 22 194 1.6 6.4 0.00 0.00 0.00 64 1018.4
20260901121445 22 198 0.0 6.4 0.00 0.00 0.00 64 1018.7
20260901121347 22 199 0.0 6.4 0.00 0.00 0.00 64 1018.3
20260901121327 22 191 1.6 9.7 0.00 0.00 0.00 64 1018.4
20260901121315 22 200 0.0 9.7 0.00 0.00 0.00 64 1018.4
20260901121304 22 206 0.0 9.7 0.00 0.00 0.00 63 1018.7
20260901120946 22 206 0.0 9.7 0.00 0.00 0.00 64 1018.5
20260901120833 22 183 0.0 9.7 0.00 0.00 0.00 63 1018.7
20260901120735 22 199 0.0 9.7 0.00 0.00 0.00 63 1018.7
20260901120634 22 200 0.0 9.7 0.00 0.00 0.00 63 1018.8
20260901120533 22 199 0.0 9.7 0.00 0.00 0.00 64 1018.5
20260901120516 22 199 0.0 9.7 0.00 0.00 0.00 64 1018.8
20260901120501 22 168 0.0 3.2 0.00 0.00 0.00 63 1019.0
20260901120234 22 211 1.6 3.2 0.00 0.00 0.00 63 1018.7
20260901120133 22 195 0.0 3.2 0.00 0.00 0.00 64 1018.7
20260901120033 22 165 1.6 3.2 0.00 0.00 0.00 64 1018.7
20260901115933 22 192 0.0 3.2 0.00 0.00 0.00 64 1018.5
20260901115834 22 192 0.0 3.2 0.00 0.00 0.00 64 1018.5
20260901115733 22 206 1.6 3.2 0.00 0.00 0.00 65 1018.7
20260901115634 22 182 0.0 3.2 0.00 0.00 0.00 64 1018.4
20260901115533 22 195 0.0 3.2 0.00 0.00 0.00 64 1018.7
20260901115434 22 169 0.0 3.2 0.00 0.00 0.00 65 1018.5
20260901115333 22 196 0.0 6.4 0.00 0.00 0.00 66 1018.7
20260901115233 22 196 0.0 6.4 0.00 0.00 0.00 65 1018.8
20260901115133 21 206 0.0 6.4 0.00 0.00 0.00 66 1018.5
20260901115033 21 192 0.0 6.4 0.00 0.00 0.00 66 1018.7
20260901114934 21 196 0.0 6.4 0.00 0.00 0.00 65 1018.5
20260901114918 21 198 0.0 6.4 0.00 0.00 0.00 66 1018.7
20260901114854 21 195 0.0 6.4 0.00 0.00 0.00 66 1018.7
20260901114534 21 196 0.0 6.4 0.00 0.00 0.00 66 1018.9
20260901114433 21 184 0.0 6.4 0.00 0.00 0.00 66 1018.8
20260901114334 21 189 0.0 3.2 0.00 0.00 0.00 67 1018.7
20260901114233 21 212 0.0 3.2 0.00 0.00 0.00 66 1018.5
20260901114153 21 196 0.0 3.2 0.00 0.00 0.00 65 1018.7
20260901114035 21 59 3.2 3.2 0.00 0.00 0.00 66 1018.8
20260901114019 21 232 1.6 3.2 0.00 0.00 0.00 66 1018.8
20260901114003 22 184 0.0 4.8 0.00 0.00 0.00 66 1018.7
20260901113735 22 192 0.0 4.8 0.00 0.00 0.00 66 1018.8
20260901113633 22 206 1.6 4.8 0.00 0.00 0.00 65 1018.8
20260901113533 22 197 0.0 4.8 0.00 0.00 0.00 65 1018.7
20260901113433 21 212 1.6 4.8 0.00 0.00 0.00 66 1018.5
20260901113334 21 199 0.0 4.8 0.00 0.00 0.00 66 1018.7
20260901113233 21 228 0.0 4.8 0.00 0.00 0.00 66 1018.7
20260901113134 21 197 0.0 4.8 0.00 0.00 0.00 66 1018.7
20260901113033 21 175 0.0 4.8 0.00 0.00 0.00 66 1018.8
20260901113000 20 197 0.0 3.2 0.00 0.00 0.00 68 1018.4
20260901112956 20 210 0.0 1.6 0.00 0.00 0.00 68 1018.5
20260901112950 20 196 0.0 1.6 0.00 0.00 0.00 67 1018.4
20260901112946 21 192 0.0 3.2 0.00 0.00 0.00 67 1018.4
20260901112940 21 175 3.2 4.8 0.00 0.00 0.00 66 1018.5
20260901112925 21 184 1.6 4.8 0.00 0.00 0.00 66 1018.8
20260901112902 21 201 0.0 4.8 0.00 0.00 0.00 66 1018.5
20260901112844 21 176 1.6 4.8 0.00 0.00 0.00 66 1019.0
20260901112608 21 176 1.6 4.8 0.00 0.00 0.00 66 1018.7
20260901112552 21 199 0.0 4.8 0.00 0.00 0.00 66 1018.5
20260901112324 22 167 0.0 4.8 0.00 0.00 0.00 67 1018.4
20260901112310 22 84 3.2 4.8 0.00 0.00 0.00 65 1018.5
20260901112254 22 200 0.0 4.8 0.00 0.00 0.00 65 1018.2
20260901112238 22 194 1.6 4.8 0.00 0.00 0.00 65 1018.5
20260901112222 22 196 0.0 4.8 0.00 0.00 0.00 66 1018.7
20260901111955 22 104 1.6 4.8 0.00 0.00 0.00 67 1018.7
20260901111938 21 198 0.0 4.8 0.00 0.00 0.00 68 1018.7
20260901111702 21 185 1.6 4.8 0.00 0.00 0.00 68 1018.4
20260901111420 20 183 0.0 3.2 0.00 0.00 0.00 69 1018.7
20260901111405 21 198 0.0 3.2 0.00 0.00 0.00 68 1018.8
20260901111348 20 196 0.0 3.2 0.00 0.00 0.00 68 1018.8
20260901111333 20 186 1.6 3.2 0.00 0.00 0.00 68 1018.7
20260901111055 20 197 0.0 3.2 0.00 0.00 0.00 68 1018.4
20260901110827 20 198 0.0 3.2 0.00 0.00 0.00 68 1018.8
20260901110807 20 201 0.0 3.2 0.00 0.00 0.00 68 1018.7
20260901110751 20 203 0.0 3.2 0.00 0.00 0.00 68 1018.9
20260901110735 20 187 0.0 3.2 0.00 0.00 0.00 68 1018.8
20260901110713 20 198 0.0 3.2 0.00 0.00 0.00 68 1018.7
20260901110657 20 196 0.0 3.2 0.00 0.00 0.00 67 1018.5
20260901110642 20 228 1.6 3.2 0.00 0.00 0.00 67 1018.7
20260901110626 20 268 0.0 1.6 0.00 0.00 0.00 68 1018.8
20260901110611 20 199 0.0 1.6 0.00 0.00 0.00 68 1018.5
20260901110552 20 210 0.0 1.6 0.00 0.00 0.00 68 1018.5
20260901110326 21 164 0.0 1.6 0.00 0.00 0.00 68 1018.7
20260901110050 20 196 0.0 1.6 0.00 0.00 0.00 68 1018.5
20260901105812 20 196 0.0 1.6 0.00 0.00 0.00 67 1018.4
20260901105547 21 194 0.0 1.6 0.00 0.00 0.00 67 1018.5
20260901105531 21 195 0.0 1.6 0.00 0.00 0.00 67 1018.7
20260901105515 21 214 0.0 3.2 0.00 0.00 0.00 67 1018.4
20260901104805 21 116 0.0 3.2 0.00 0.00 0.00 66 1018.5
20260901104541 21 197 0.0 3.2 0.00 0.00 0.00 66 1018.4
20260901104527 21 199 0.0 3.2 0.00 0.00 0.00 66 1018.5
20260901104511 21 125 0.0 3.2 0.00 0.00 0.00 66 1018.7
20260901104239 21 194 1.6 3.2 0.00 0.00 0.00 65 1018.7
20260901104223 21 174 0.0 3.2 0.00 0.00 0.00 65 1018.7
20260901104208 22 198 0.0 3.2 0.00 0.00 0.00 65 1018.7
20260901104152 22 199 0.0 3.2 0.00 0.00 0.00 66 1018.5
20260901104137 22 183 0.0 3.2 0.00 0.00 0.00 64 1018.8
20260901103908 22 144 0.0 4.8 0.00 0.00 0.00 63 1018.5
20260901103851 22 198 0.0 4.8 0.00 0.00 0.00 62 1018.8
20260901103835 22 199 0.0 4.8 0.00 0.00 0.00 62 1018.8
20260901103819 22 200 0.0 4.8 0.00 0.00 0.00 64 1018.7
20260901103804 22 137 0.0 4.8 0.00 0.00 0.00 63 1018.5
20260901103314 22 201 0.0 4.8 0.00 0.00 0.00 64 1018.8
20260901103258 22 200 0.0 4.8 0.00 0.00 0.00 63 1018.2
20260901102718 22 208 0.0 9.7 0.00 0.00 0.00 63 1019.0
20260901102653 22 204 0.0 9.7 0.00 0.00 0.00 64 1018.8
20260901102637 22 178 0.0 9.7 0.00 0.00 0.00 65 1018.2
20260901102622 22 196 0.0 9.7 0.00 0.00 0.00 66 1018.4
20260901102605 22 206 1.6 9.7 0.00 0.00 0.00 64 1018.5
20260901102338 22 196 1.6 9.7 0.00 0.00 0.00 64 1018.4
20260901102018 21 206 0.0 9.7 0.00 0.00 0.00 64 1018.7
20260901102003 21 198 0.0 1.6 0.00 0.00 0.00 64 1018.3
20260901101947 21 188 0.0 1.6 0.00 0.00 0.00 65 1018.5
20260901101717 21 202 0.0 1.6 0.00 0.00 0.00 65 1018.4
20260901101617 21 195 0.0 1.6 0.00 0.00 0.00 64 1018.3
20260901101517 21 201 0.0 1.6 0.00 0.00 0.00 64 1018.3
20260901101417 21 205 0.0 1.6 0.00 0.00 0.00 64 1018.7
20260901101317 21 160 0.0 1.6 0.00 0.00 0.00 64 1018.7
20260901101217 21 196 0.0 1.6 0.00 0.00 0.00 65 1018.5
20260901101122 22 196 0.0 1.6 0.00 0.00 0.00 65 1018.3
20260901101019 21 197 0.0 1.6 0.00 0.00 0.00 65 1018.5
20260901101002 21 194 0.0 1.6 0.00 0.00 0.00 65 1018.3
20260901100946 21 186 1.6 1.6 0.00 0.00 0.00 65 1018.4
20260901100717 21 209 0.0 1.6 0.00 0.00 0.00 65 1018.3
20260901100617 21 200 0.0 3.2 0.00 0.00 0.00 66 1018.3
20260901100517 21 199 0.0 3.2 0.00 0.00 0.00 65 1018.5
20260901100417 21 134 0.0 3.2 0.00 0.00 0.00 67 1018.3
20260901100317 21 198 0.0 3.2 0.00 0.00 0.00 67 1018.4
20260901100218 21 176 0.0 3.2 0.00 0.00 0.00 67 1018.3
20260901100116 21 183 0.0 3.2 0.00 0.00 0.00 65 1018.5
20260901100018 21 205 0.0 3.2 0.00 0.00 0.00 66 1018.5
20260901095918 21 199 0.0 3.2 0.00 0.00 0.00 65 1018.4
20260901095817 22 199 0.0 4.8 0.00 0.00 0.00 64 1018.5
20260901095730 22 197 0.0 4.8 0.00 0.00 0.00 63 1018.5
20260901095617 22 168 0.0 4.8 0.00 0.00 0.00 63 1018.4
20260901095518 22 188 0.0 4.8 0.00 0.00 0.00 63 1018.5
20260901095418 22 198 0.0 9.7 0.00 0.00 0.00 63 1018.4
20260901095317 22 206 0.0 9.7 0.00 0.00 0.00 62 1018.5
20260901095217 23 190 0.0 11.3 0.00 0.00 0.00 62 1018.3
20260901095155 24 152 0.0 11.3 0.00 0.00 0.00 59 1018.3
20260901095151 23 207 0.0 9.7 0.00 0.00 0.00 60 1018.2
20260901095143 23 204 0.0 11.3 0.00 0.00 0.00 60 1018.1
20260901095128 23 190 0.0 11.3 0.00 0.00 0.00 60 1018.3
20260901095114 24 152 3.2 11.3 0.00 0.00 0.00 59 1018.3
20260901095058 24 202 0.0 11.3 0.00 0.00 0.00 60 1018.4
20260901095039 24 152 0.0 11.3 0.00 0.00 0.00 59 1018.3
20260901094812 24 196 0.0 11.3 0.00 0.00 0.00 60 1018.7
20260901094535 24 226 1.6 11.3 0.00 0.00 0.00 61 1018.3
20260901094520 24 230 0.0 11.3 0.00 0.00 0.00 60 1018.4
20260901094503 23 207 0.0 9.7 0.00 0.00 0.00 60 1018.2
20260901094237 23 217 1.6 9.7 0.00 0.00 0.00 59 1018.4
20260901093917 23 200 0.0 9.7 0.00 0.00 0.00 61 1018.1
20260901093818 23 101 0.0 4.8 0.00 0.00 0.00 59 1018.1
20260901093718 23 202 0.0 4.8 0.00 0.00 0.00 60 1018.7
20260901093617 23 138 3.2 4.8 0.00 0.00 0.00 60 1018.4
20260901093518 23 157 0.0 4.8 0.00 0.00 0.00 61 1018.3
20260901093419 23 207 0.0 4.8 0.00 0.00 0.00 62 1018.3
20260901093317 23 217 1.6 4.8 0.00 0.00 0.00 63 1018.5
20260901093217 23 212 1.6 4.8 0.00 0.00 0.00 61 1018.3
20260901093116 23 191 0.0 4.8 0.00 0.00 0.00 62 1018.4
20260901093055 23 178 0.0 4.8 0.00 0.00 0.00 62 1018.2
20260901093038 23 178 0.0 4.8 0.00 0.00 0.00 61 1018.3
20260901092751 23 201 0.0 4.8 0.00 0.00 0.00 58 1018.5
20260901092734 23 205 0.0 9.7 0.00 0.00 0.00 60 1018.4
20260901092719 23 194 0.0 9.7 0.00 0.00 0.00 59 1018.3
20260901092443 23 209 1.6 9.7 0.00 0.00 0.00 60 1018.2
20260901092217 23 107 0.0 9.7 0.00 0.00 0.00 61 1018.2
20260901092153 23 237 0.0 9.7 0.00 0.00 0.00 63 1018.2
20260901092138 23 239 1.6 9.7 0.00 0.00 0.00 61 1018.0
20260901091900 23 202 0.0 9.7 0.00 0.00 0.00 61 1018.4
20260901091836 23 153 3.2 9.7 0.00 0.00 0.00 61 1018.4
20260901091517 23 216 0.0 4.8 0.00 0.00 0.00 61 1018.3
20260901091417 23 198 0.0 3.2 0.00 0.00 0.00 61 1018.4
20260901091317 23 200 0.0 3.2 0.00 0.00 0.00 62 1018.3
20260901091217 23 200 0.0 3.2 0.00 0.00 0.00 63 1018.2
20260901091118 22 202 0.0 3.2 0.00 0.00 0.00 63 1018.2
20260901091021 21 135 0.0 3.2 0.00 0.00 0.00 65 1018.1
20260901091017 22 199 1.6 3.2 0.00 0.00 0.00 64 1018.1
20260901091001 22 199 0.0 3.2 0.00 0.00 0.00 64 1018.4
20260901090945 22 163 1.6 3.2 0.00 0.00 0.00 64 1018.1
20260901090926 21 135 0.0 3.2 0.00 0.00 0.00 65 1018.1
20260901090618 21 194 0.0 3.2 0.00 0.00 0.00 66 1018.2
20260901090517 21 188 0.0 3.2 0.00 0.00 0.00 68 1018.3
20260901090417 21 201 0.0 3.2 0.00 0.00 0.00 69 1018.2
20260901090317 21 116 1.6 3.2 0.00 0.00 0.00 69 1018.3
20260901090217 21 155 1.6 3.2 0.00 0.00 0.00 70 1018.2
20260901090152 21 202 0.0 3.2 0.00 0.00 0.00 68 1018.2
20260901090137 21 207 0.0 3.2 0.00 0.00 0.00 68 1018.3
20260901085818 21 201 0.0 3.2 0.00 0.00 0.00 68 1018.1
20260901085717 21 204 0.0 3.2 0.00 0.00 0.00 68 1018.4
20260901085653 21 79 0.0 3.2 0.00 0.00 0.00 69 1018.3
20260901085637 21 187 1.6 3.2 0.00 0.00 0.00 69 1018.4
20260901085317 21 230 0.0 3.2 0.00 0.00 0.00 70 1018.7
20260901085217 21 200 0.0 3.2 0.00 0.00 0.00 70 1018.3
20260901085117 20 73 0.0 3.2 0.00 0.00 0.00 70 1018.3
20260901085055 20 198 0.0 0.0 0.00 0.00 0.00 71 1018.4
20260901085038 20 197 0.0 0.0 0.00 0.00 0.00 72 1018.2
20260901084715 19 198 0.0 0.0 0.00 0.00 0.00 73 1018.5
20260901084216 19 193 0.0 4.8 0.00 0.00 0.00 72 1018.3
20260901084157 19 200 1.6 4.8 0.00 0.00 0.00 72 1018.3
20260901084116 21 196 0.0 9.7 0.00 0.00 0.00 70 1018.2
20260901084111 20 191 0.0 3.2 0.00 0.00 0.00 71 1018.2
20260901084105 22 208 0.0 9.7 0.00 0.00 0.00 65 1017.9
20260901084100 19 182 1.6 4.8 0.00 0.00 0.00 73 1018.2
20260901084044 19 165 0.0 4.8 0.00 0.00 0.00 72 1018.2
20260901084029 19 176 1.6 3.2 0.00 0.00 0.00 73 1018.2
20260901084013 19 194 0.0 3.2 0.00 0.00 0.00 72 1018.4
20260901083957 19 194 0.0 3.2 0.00 0.00 0.00 72 1018.4
20260901083949 19 194 0.0 3.2 0.00 0.00 0.00 72 1018.3
20260901083934 19 182 0.0 3.2 0.00 0.00 0.00 72 1018.3
20260901083918 19 160 0.0 3.2 0.00 0.00 0.00 72 1018.2
20260901083641 20 92 1.6 3.2 0.00 0.00 0.00 71 1018.2
20260901083627 20 206 0.0 1.6 0.00 0.00 0.00 71 1018.2
20260901083359 20 194 0.0 1.6 0.00 0.00 0.00 71 1018.1
20260901083342 20 202 0.0 1.6 0.00 0.00 0.00 71 1018.2
20260901083107 20 189 0.0 3.2 0.00 0.00 0.00 71 1018.2
20260901082838 20 194 0.0 3.2 0.00 0.00 0.00 71 1018.0
20260901082603 21 200 0.0 4.8 0.00 0.00 0.00 70 1018.1
20260901082547 21 194 0.0 4.8 0.00 0.00 0.00 69 1018.2
20260901082531 21 198 0.0 4.8 0.00 0.00 0.00 69 1018.1
20260901082517 21 199 0.0 4.8 0.00 0.00 0.00 70 1018.1
20260901082249 21 200 0.0 4.8 0.00 0.00 0.00 69 1018.0
20260901082012 21 202 0.0 4.8 0.00 0.00 0.00 68 1018.1
20260901081957 21 177 0.0 4.8 0.00 0.00 0.00 68 1018.2
20260901081732 21 35 1.6 4.8 0.00 0.00 0.00 68 1018.2
20260901081724 22 202 1.6 4.8 0.00 0.00 0.00 68 1018.1
20260901081709 22 198 0.0 3.2 0.00 0.00 0.00 67 1018.1
20260901081653 22 199 0.0 4.8 0.00 0.00 0.00 66 1017.8
20260901081638 22 191 0.0 4.8 0.00 0.00 0.00 66 1018.1
20260901081621 22 227 0.0 4.8 0.00 0.00 0.00 64 1017.9
20260901081354 22 218 0.0 9.7 0.00 0.00 0.00 65 1018.1
20260901081337 22 205 1.6 9.7 0.00 0.00 0.00 66 1018.0
20260901081321 22 198 0.0 9.7 0.00 0.00 0.00 67 1017.8
20260901081305 22 196 0.0 9.7 0.00 0.00 0.00 68 1017.9
20260901081249 21 199 0.0 9.7 0.00 0.00 0.00 69 1018.2
20260901080456 21 198 0.0 9.7 0.00 0.00 0.00 69 1017.8
20260901080356 21 193 0.0 9.7 0.00 0.00 0.00 69 1017.9
20260901080338 22 217 6.4 9.7 0.00 0.00 0.00 68 1017.7
20260901080323 22 191 1.6 6.4 0.00 0.00 0.00 68 1017.7
20260901080316 22 191 0.0 6.4 0.00 0.00 0.00 68 1017.8
20260901075956 22 239 3.2 6.4 0.00 0.00 0.00 69 1017.8
20260901075857 22 197 0.0 3.2 0.00 0.00 0.00 70 1017.9
20260901075756 22 200 0.0 3.2 0.00 0.00 0.00 69 1017.8
20260901075717 22 204 0.0 3.2 0.00 0.00 0.00 69 1017.8
20260901075657 22 196 0.0 3.2 0.00 0.00 0.00 69 1017.9
20260901075556 22 202 0.0 3.2 0.00 0.00 0.00 68 1017.8
20260901075457 22 199 0.0 3.2 0.00 0.00 0.00 69 1018.0
20260901075357 22 189 0.0 3.2 0.00 0.00 0.00 69 1017.9
20260901075256 22 201 0.0 3.2 0.00 0.00 0.00 70 1017.8
20260901075240 22 198 0.0 3.2 0.00 0.00 0.00 69 1017.8
20260901075232 22 206 1.6 3.2 0.00 0.00 0.00 69 1017.9
20260901075215 22 212 0.0 3.2 0.00 0.00 0.00 68 1017.8
20260901075200 22 202 0.0 3.2 0.00 0.00 0.00 69 1017.8
20260901074925 21 192 0.0 3.2 0.00 0.00 0.00 70 1018.0
20260901074908 21 197 0.0 3.2 0.00 0.00 0.00 70 1018.0
20260901074556 20 198 0.0 6.4 0.00 0.00 0.00 71 1017.9
20260901074458 20 188 0.0 6.4 0.00 0.00 0.00 72 1018.0
20260901074356 20 192 0.0 6.4 0.00 0.00 0.00 73 1017.9
20260901074256 20 188 0.0 6.4 0.00 0.00 0.00 73 1017.7
20260901074217 20 147 0.0 6.4 0.00 0.00 0.00 73 1017.7
20260901074156 20 191 0.0 6.4 0.00 0.00 0.00 73 1018.0
20260901074057 20 192 1.6 6.4 0.00 0.00 0.00 73 1017.9
20260901073957 21 77 1.6 6.4 0.00 0.00 0.00 71 1017.7
20260901073939 22 203 0.0 3.2 0.00 0.00 0.00 68 1017.5
20260901073933 22 212 0.0 4.8 0.00 0.00 0.00 68 1017.5
20260901073925 21 106 1.6 6.4 0.00 0.00 0.00 71 1017.9
20260901073910 21 195 0.0 6.4 0.00 0.00 0.00 70 1017.8
20260901073852 21 189 1.6 6.4 0.00 0.00 0.00 70 1017.8
20260901073845 21 187 0.0 3.2 0.00 0.00 0.00 69 1018.1
20260901073829 21 192 0.0 3.2 0.00 0.00 0.00 69 1018.0
20260901073814 21 161 1.6 3.2 0.00 0.00 0.00 70 1017.7
20260901073758 21 200 0.0 3.2 0.00 0.00 0.00 70 1017.7
20260901073523 21 212 0.0 3.2 0.00 0.00 0.00 69 1017.8
20260901073515 21 216 0.0 3.2 0.00 0.00 0.00 69 1017.7
20260901073459 21 199 0.0 1.6 0.00 0.00 0.00 70 1017.6
20260901073442 21 198 0.0 1.6 0.00 0.00 0.00 70 1017.6
20260901073426 22 164 0.0 1.6 0.00 0.00 0.00 69 1017.6
20260901073411 22 199 0.0 3.2 0.00 0.00 0.00 69 1017.5
20260901073140 22 198 0.0 3.2 0.00 0.00 0.00 69 1017.8
20260901073124 22 203 0.0 4.8 0.00 0.00 0.00 68 1017.6
20260901072627 22 191 0.0 4.8 0.00 0.00 0.00 68 1017.5
20260901072057 22 159 0.0 4.8 0.00 0.00 0.00 68 1017.5
20260901072029 22 191 0.0 4.8 0.00 0.00 0.00 69 1017.2
20260901072014 22 181 0.0 4.8 0.00 0.00 0.00 69 1017.5
20260901071958 22 245 0.0 4.8 0.00 0.00 0.00 68 1017.5
20260901071941 22 198 0.0 4.8 0.00 0.00 0.00 69 1017.5
20260901071712 22 222 0.0 3.2 0.00 0.00 0.00 70 1017.5
20260901071655 22 137 0.0 3.2 0.00 0.00 0.00 69 1017.5
20260901071418 22 188 0.0 3.2 0.00 0.00 0.00 69 1017.5
20260901071403 22 198 0.0 3.2 0.00 0.00 0.00 69 1017.5
20260901071355 22 198 0.0 3.2 0.00 0.00 0.00 69 1017.4
20260901071119 22 193 0.0 3.2 0.00 0.00 0.00 69 1017.4
20260901070842 21 197 0.0 3.2 0.00 0.00 0.00 70 1017.2
20260901070825 21 209 0.0 3.2 0.00 0.00 0.00 70 1017.2
20260901070817 21 189 0.0 3.2 0.00 0.00 0.00 70 1017.7
20260901070458 21 178 0.0 3.2 0.00 0.00 0.00 72 1017.2
20260901070356 21 47 0.0 3.2 0.00 0.00 0.00 72 1017.4
20260901070257 21 196 0.0 3.2 0.00 0.00 0.00 72 1017.5
20260901070217 21 197 0.0 3.2 0.00 0.00 0.00 73 1017.5
20260901070156 21 201 0.0 3.2 0.00 0.00 0.00 73 1017.4
20260901070134 21 147 1.6 3.2 0.00 0.00 0.00 72 1017.4
20260901070118 21 203 0.0 3.2 0.00 0.00 0.00 71 1017.3
20260901065757 21 189 1.6 4.8 0.00 0.00 0.00 71 1017.3
20260901065717 21 205 1.6 4.8 0.00 0.00 0.00 71 1017.3
20260901065656 21 193 1.6 4.8 0.00 0.00 0.00 72 1017.5
20260901065641 20 245 1.6 11.3 0.00 0.00 0.00 73 1017.4
20260901065632 21 201 0.0 11.3 0.00 0.00 0.00 72 1017.5
20260901065616 21 177 1.6 11.3 0.00 0.00 0.00 72 1017.2
20260901065559 20 201 0.0 11.3 0.00 0.00 0.00 72 1017.3
20260901065544 20 162 0.0 11.3 0.00 0.00 0.00 73 1017.4
20260901065317 20 183 0.0 11.3 0.00 0.00 0.00 73 1017.3
20260901064956 20 237 1.6 11.3 0.00 0.00 0.00 73 1017.3
20260901064857 20 186 1.6 11.3 0.00 0.00 0.00 73 1017.4
20260901064757 20 174 1.6 11.3 0.00 0.00 0.00 73 1017.5
20260901064717 20 201 1.6 11.3 0.00 0.00 0.00 73 1017.5
20260901064658 20 180 3.2 11.3 0.00 0.00 0.00 73 1017.4
20260901064630 20 186 1.6 3.2 0.00 0.00 0.00 73 1017.3
20260901064615 20 192 0.0 3.2 0.00 0.00 0.00 73 1017.3
20260901064257 20 152 0.0 1.6 0.00 0.00 0.00 72 1017.4
20260901064216 20 206 0.0 1.6 0.00 0.00 0.00 73 1017.4
20260901064156 20 194 0.0 3.2 0.00 0.00 0.00 73 1017.3
20260901064056 20 162 0.0 3.2 0.00 0.00 0.00 73 1017.3
20260901064015 20 154 1.6 3.2 0.00 0.00 0.00 75 1017.2
20260901064008 20 199 0.0 3.2 0.00 0.00 0.00 74 1017.1
20260901063953 20 193 0.0 3.2 0.00 0.00 0.00 74 1017.3
20260901063937 20 190 0.0 3.2 0.00 0.00 0.00 74 1017.2
20260901063657 20 80 0.0 3.2 0.00 0.00 0.00 75 1017.6
20260901063556 20 112 0.0 3.2 0.00 0.00 0.00 75 1017.3
20260901063456 20 163 0.0 6.4 0.00 0.00 0.00 75 1017.3
20260901063356 20 194 0.0 6.4 0.00 0.00 0.00 76 1017.2
20260901063256 20 172 0.0 6.4 0.00 0.00 0.00 75 1017.3
20260901063217 20 199 1.6 6.4 0.00 0.00 0.00 76 1017.3
20260901063157 19 224 1.6 6.4 0.00 0.00 0.00 76 1017.1
20260901063055 19 188 0.0 6.4 0.00 0.00 0.00 76 1017.1
20260901063015 19 202 0.0 6.4 0.00 0.00 0.00 75 1017.2
20260901063008 19 149 0.0 6.4 0.00 0.00 0.00 76 1017.1
20260901062952 19 194 0.0 6.4 0.00 0.00 0.00 75 1017.1
20260901062937 19 192 0.0 6.4 0.00 0.00 0.00 76 1017.2
20260901062656 19 194 0.0 6.4 0.00 0.00 0.00 75 1017.0
20260901062631 20 139 0.0 6.4 0.00 0.00 0.00 75 1017.4
20260901062615 20 92 3.2 4.8 0.00 0.00 0.00 73 1017.3
20260901062256 20 155 0.0 3.2 0.00 0.00 0.00 74 1017.1
20260901062240 20 79 1.6 3.2 0.00 0.00 0.00 74 1017.1
20260901062232 20 186 0.0 3.2 0.00 0.00 0.00 74 1017.2
20260901062216 20 189 0.0 3.2 0.00 0.00 0.00 75 1017.1
20260901061856 20 195 0.0 3.2 0.00 0.00 0.00 75 1017.1
20260901061756 20 194 0.0 1.6 0.00 0.00 0.00 75 1017.0
20260901061716 20 182 0.0 1.6 0.00 0.00 0.00 75 1017.0
20260901061710 20 184 0.0 1.6 0.00 0.00 0.00 77 1017.1
20260901061704 20 192 0.0 1.6 0.00 0.00 0.00 75 1017.0
20260901061649 20 179 0.0 1.6 0.00 0.00 0.00 75 1017.0
20260901061633 20 187 0.0 1.6 0.00 0.00 0.00 75 1017.1
20260901061617 20 190 0.0 1.6 0.00 0.00 0.00 75 1017.2
20260901061601 20 155 0.0 1.6 0.00 0.00 0.00 76 1017.0
20260901061547 20 276 0.0 1.6 0.00 0.00 0.00 76 1017.0
20260901061539 20 193 0.0 1.6 0.00 0.00 0.00 76 1017.0
20260901061523 20 181 0.0 1.6 0.00 0.00 0.00 76 1017.1
20260901061248 20 190 0.0 1.6 0.00 0.00 0.00 76 1017.2
20260901061232 20 194 0.0 1.6 0.00 0.00 0.00 76 1017.1
20260901061215 20 199 0.0 1.6 0.00 0.00 0.00 77 1017.1
20260901060946 19 192 0.0 1.6 0.00 0.00 0.00 77 1017.0
20260901060710 19 151 0.0 1.6 0.00 0.00 0.00 77 1017.0
20260901060157 20 185 0.0 1.6 0.00 0.00 0.00 77 1016.9
20260901060057 20 189 0.0 1.6 0.00 0.00 0.00 76 1016.9
20260901055956 19 192 0.0 1.6 0.00 0.00 0.00 77 1016.8
20260901055856 19 191 0.0 1.6 0.00 0.00 0.00 78 1016.9
20260901055821 19 169 0.0 3.2 0.00 0.00 0.00 79 1016.9
20260901055811 19 135 0.0 1.6 0.00 0.00 0.00 77 1016.9
20260901055754 19 189 0.0 1.6 0.00 0.00 0.00 77 1016.9
20260901055746 19 196 0.0 1.6 0.00 0.00 0.00 77 1016.9
20260901055731 19 187 0.0 1.6 0.00 0.00 0.00 78 1016.6
20260901055506 19 122 0.0 3.2 0.00 0.00 0.00 78 1016.8
20260901055451 19 198 0.0 3.2 0.00 0.00 0.00 78 1016.9
20260901055435 19 197 0.0 3.2 0.00 0.00 0.00 79 1016.9
20260901055156 19 192 0.0 3.2 0.00 0.00 0.00 79 1016.7
20260901055105 16 203 0.0 1.6 0.00 0.00 0.00 94 1016.8
20260901055059 19 194 0.0 3.2 0.00 0.00 0.00 80 1016.6
20260901055043 18 206 0.0 3.2 0.00 0.00 0.00 80 1016.6
20260901055027 18 191 0.0 3.2 0.00 0.00 0.00 80 1016.7
20260901055011 18 195 0.0 3.2 0.00 0.00 0.00 81 1016.8
20260901054955 18 196 0.0 3.2 0.00 0.00 0.00 81 1016.8
20260901054947 18 195 0.0 3.2 0.00 0.00 0.00 81 1016.8
20260901054932 18 181 0.0 3.2 0.00 0.00 0.00 82 1016.8
20260901054916 18 195 0.0 0.0 0.00 0.00 0.00 84 1016.9
20260901054641 17 281 0.0 1.6 0.00 0.00 0.00 86 1016.8
20260901054627 17 195 0.0 1.6 0.00 0.00 0.00 86 1016.8
20260901054359 17 199 0.0 1.6 0.00 0.00 0.00 88 1016.8
20260901054332 16 191 0.0 1.6 0.00 0.00 0.00 90 1016.8
20260901054300 16 196 0.0 1.6 0.00 0.00 0.00 91 1016.6
20260901054252 16 196 0.0 1.6 0.00 0.00 0.00 91 1016.6
20260901054236 16 197 0.0 1.6 0.00 0.00 0.00 92 1016.8
20260901054001 16 202 0.0 1.6 0.00 0.00 0.00 93 1016.7
20260901053945 16 200 0.0 1.6 0.00 0.00 0.00 94 1016.8
20260901053719 16 199 0.0 1.6 0.00 0.00 0.00 94 1016.5
20260901052717 15 195 0.0 0.0 0.00 0.00 0.00 96 1016.7
20260901052656 15 194 0.0 0.0 0.00 0.00 0.00 96 1016.4
20260901052638 15 194 0.0 0.0 0.00 0.00 0.00 96 1016.4
20260901052621 15 194 0.0 0.0 0.00 0.00 0.00 97 1016.6
20260901052606 15 208 0.0 0.0 0.00 0.00 0.00 97 1016.5
20260901052325 15 196 0.0 0.0 0.00 0.00 0.00 97 1016.4
20260901052317 15 196 0.0 0.0 0.00 0.00 0.00 97 1016.5
20260901052015 15 200 0.0 0.0 0.00 0.00 0.00 98 1016.3
20260901052009 15 195 0.0 0.0 0.00 0.00 0.00 98 1016.5
20260901051952 15 198 0.0 0.0 0.00 0.00 0.00 98 1016.7
20260901051936 15 199 0.0 0.0 0.00 0.00 0.00 98 1016.3
20260901051656 15 201 0.0 0.0 0.00 0.00 0.00 98 1016.2
20260901051557 15 196 0.0 0.0 0.00 0.00 0.00 98 1016.5
20260901051455 15 196 0.0 0.0 0.00 0.00 0.00 98 1016.3
20260901051356 15 196 0.0 0.0 0.00 0.00 0.00 98 1016.6
20260901051336 14 196 0.0 0.0 0.00 0.00 0.00 99 1016.1
20260901051328 15 196 0.0 0.0 0.00 0.00 0.00 98 1016.4
20260901051313 15 196 0.0 0.0 0.00 0.00 0.00 98 1016.4
20260901051305 15 196 0.0 0.0 0.00 0.00 0.00 98 1016.4
20260901051249 15 196 0.0 0.0 0.00 0.00 0.00 98 1016.3
20260901051023 15 196 0.0 0.0 0.00 0.00 0.00 99 1016.3
20260901051007 14 196 0.0 0.0 0.00 0.00 0.00 99 1016.3
20260901050952 14 196 0.0 0.0 0.00 0.00 0.00 99 1016.2
20260901050936 14 196 0.0 0.0 0.00 0.00 0.00 99 1016.2
20260901050928 14 196 0.0 0.0 0.00 0.00 0.00 99 1016.1
20260901050651 14 201 0.0 0.0 0.00 0.00 0.00 99 1016.3
20260901050636 14 201 0.0 0.0 0.00 0.00 0.00 99 1016.3
20260901050620 14 196 0.0 0.0 0.00 0.00 0.00 99 1016.1
20260901050353 14 198 0.0 0.0 0.00 0.00 0.00 99 1016.1
20260901050117 14 198 0.0 0.0 0.00 0.00 0.00 99 1016.2
20260901050029 14 196 0.0 0.0 0.00 0.00 0.00 99 1015.9
20260901045458 14 196 0.0 0.0 0.00 0.00 0.00 99 1016.2
20260901045356 13 194 0.0 0.0 0.00 0.00 0.00 99 1016.1
20260901045258 13 196 0.0 0.0 0.00 0.00 0.00 99 1016.0
20260901045241 13 196 0.0 0.0 0.00 0.00 0.00 99 1016.0
20260901045233 13 196 0.0 0.0 0.00 0.00 0.00 99 1016.1
20260901045217 13 196 0.0 0.0 0.00 0.00 0.00 99 1016.2
20260901044858 13 196 0.0 0.0 0.00 0.00 0.00 99 1016.3
20260901044842 13 196 0.0 0.0 0.00 0.00 0.00 99 1015.9
20260901044825 13 196 0.0 0.0 0.00 0.00 0.00 99 1015.9
20260901044816 13 196 0.0 0.0 0.00 0.00 0.00 99 1016.0
20260901044456 13 196 0.0 0.0 0.00 0.00 0.00 99 1016.0
20260901044356 13 196 0.0 0.0 0.00 0.00 0.00 99 1016.0
20260901044315 14 196 0.0 0.0 0.00 0.00 0.00 99 1016.0
20260901044253 14 196 0.0 0.0 0.00 0.00 0.00 99 1016.0
20260901044246 14 196 0.0 0.0 0.00 0.00 0.00 99 1016.0
20260901044229 14 196 0.0 0.0 0.00 0.00 0.00 99 1015.8
20260901043953 14 196 0.0 0.0 0.00 0.00 0.00 100 1015.9
20260901043938 14 196 0.0 0.0 0.00 0.00 0.00 100 1016.0
20260901043655 14 196 0.0 0.0 0.00 0.00 0.00 99 1016.0
20260901043557 13 196 0.0 0.0 0.00 0.00 0.00 100 1016.0
20260901043457 13 196 0.0 0.0 0.00 0.00 0.00 100 1016.0
20260901043356 13 196 0.0 0.0 0.00 0.00 0.00 100 1015.8
20260901043345 13 197 0.0 0.0 0.00 0.00 0.00 99 1015.7
20260901043341 13 197 0.0 0.0 0.00 0.00 0.00 99 1015.9
20260901043318 13 196 0.0 0.0 0.00 0.00 0.00 100 1015.8
20260901043310 13 196 0.0 0.0 0.00 0.00 0.00 100 1015.9
20260901043253 13 196 0.0 0.0 0.00 0.00 0.00 100 1015.9
20260901043020 13 197 0.0 0.0 0.00 0.00 0.00 100 1015.9
20260901043004 13 197 0.0 0.0 0.00 0.00 0.00 100 1015.9
20260901042735 13 197 0.0 0.0 0.00 0.00 0.00 100 1015.9
20260901042719 13 197 0.0 0.0 0.00 0.00 0.00 99 1015.8
20260901042455 13 197 0.0 0.0 0.00 0.00 0.00 99 1015.8
20260901042444 13 197 0.0 0.0 0.00 0.00 0.00 99 1015.9
20260901042433 13 197 0.0 0.0 0.00 0.00 0.00 99 1015.8
20260901042403 13 197 0.0 0.0 0.00 0.00 0.00 99 1015.9
20260901042355 13 197 0.0 0.0 0.00 0.00 0.00 99 1015.8
20260901042340 13 197 0.0 0.0 0.00 0.00 0.00 99 1016.0
20260901042103 13 197 0.0 0.0 0.00 0.00 0.00 99 1015.7
20260901041844 13 197 0.0 0.0 0.00 0.00 0.00 99 1015.7
20260901041840 13 197 0.0 0.0 0.00 0.00 0.00 99 1015.7
20260901041815 13 197 0.0 0.0 0.00 0.00 0.00 99 1015.9
20260901041807 13 197 0.0 0.0 0.00 0.00 0.00 99 1015.9
20260901041752 13 197 0.0 0.0 0.00 0.00 0.00 99 1015.7
20260901041735 13 197 0.0 0.0 0.00 0.00 0.00 99 1015.8
20260901041719 13 197 0.0 0.0 0.00 0.00 0.00 99 1015.9
20260901041703 13 197 0.0 0.0 0.00 0.00 0.00 99 1015.9
20260901041436 13 197 0.0 0.0 0.00 0.00 0.00 99 1015.7
20260901041420 13 197 0.0 0.0 0.00 0.00 0.00 99 1015.9
20260901041405 13 197 0.0 0.0 0.00 0.00 0.00 99 1015.6
20260901041349 13 197 0.0 0.0 0.00 0.00 0.00 99 1015.6
20260901041333 13 197 0.0 0.0 0.00 0.00 0.00 99 1015.5
20260901041316 13 197 0.0 0.0 0.00 0.00 0.00 99 1015.5
20260901041308 13 197 0.0 0.0 0.00 0.00 0.00 99 1015.5
20260901040812 13 197 0.0 0.0 0.00 0.00 0.00 99 1015.9
20260901040743 13 197 0.0 0.0 0.00 0.00 0.00 99 1015.7
20260901040735 13 197 0.0 0.0 0.00 0.00 0.00 99 1015.7
20260901040501 13 197 0.0 0.0 0.00 0.00 0.00 99 1015.6
20260901040445 13 197 0.0 0.0 0.00 0.00 0.00 99 1015.7
20260901040413 13 197 0.0 0.0 0.00 0.00 0.00 99 1015.7
20260901040144 13 197 0.0 0.0 0.00 0.00 0.00 99 1016.0
20260901040128 13 197 0.0 0.0 0.00 0.00 0.00 99 1015.7
20260901035422 13 197 0.0 0.0 0.00 0.00 0.00 99 1015.6
20260901035406 13 197 0.0 0.0 0.00 0.00 0.00 99 1015.6
20260901035350 13 197 0.0 0.0 0.00 0.00 0.00 99 1015.6
20260901035334 13 196 0.0 0.0 0.00 0.00 0.00 99 1015.8
20260901035318 13 197 0.0 0.0 0.00 0.00 0.00 99 1015.7
20260901035050 13 197 0.0 0.0 0.00 0.00 0.00 99 1015.8
20260901035034 13 197 0.0 0.0 0.00 0.00 0.00 99 1015.5
20260901035020 13 197 0.0 0.0 0.00 0.00 0.00 99 1015.5
20260901035003 13 196 0.0 0.0 0.00 0.00 0.00 99 1015.7
20260901034946 13 196 0.0 0.0 0.00 0.00 0.00 99 1015.7
20260901034453 13 197 0.0 0.0 0.00 0.00 0.00 99 1015.7
20260901034217 13 197 0.0 0.0 0.00 0.00 0.00 99 1015.4
20260901033732 13 197 0.0 0.0 0.00 0.00 0.00 99 1015.3
20260901033724 13 197 0.0 0.0 0.00 0.00 0.00 99 1015.5
20260901033709 13 197 0.0 0.0 0.00 0.00 0.00 99 1015.6
20260901033653 13 197 0.0 0.0 0.00 0.00 0.00 99 1015.7
20260901033637 13 197 0.0 0.0 0.00 0.00 0.00 99 1015.5
20260901033621 13 197 0.0 0.0 0.00 0.00 0.00 99 1015.6
20260901033052 13 197 0.0 0.0 0.00 0.00 0.00 98 1015.2
20260901032951 13 197 0.0 0.0 0.00 0.00 0.00 99 1015.4
20260901032928 13 197 0.0 0.0 0.00 0.00 0.00 98 1015.4
20260901032856 13 197 0.0 0.0 0.00 0.00 0.00 98 1015.4
20260901032848 13 197 0.0 0.0 0.00 0.00 0.00 98 1015.4
20260901032612 13 196 0.0 0.0 0.00 0.00 0.00 98 1015.3
20260901032252 13 197 0.0 0.0 0.00 0.00 0.00 98 1015.3
20260901032213 13 197 0.0 0.0 0.00 0.00 0.00 98 1015.3
20260901032152 13 197 0.0 0.0 0.00 0.00 0.00 98 1015.3
20260901032052 13 197 0.0 0.0 0.00 0.00 0.00 98 1015.5
20260901031953 13 197 0.0 0.0 0.00 0.00 0.00 98 1015.3
20260901031852 13 197 0.0 0.0 0.00 0.00 0.00 98 1015.4
20260901031753 13 197 0.0 0.0 0.00 0.00 0.00 98 1015.4
20260901031712 13 197 0.0 0.0 0.00 0.00 0.00 98 1015.4
20260901031652 13 197 0.0 0.0 0.00 0.00 0.00 98 1015.4
20260901031632 13 197 0.0 0.0 0.00 0.00 0.00 98 1015.4
20260901031617 13 197 0.0 0.0 0.00 0.00 0.00 98 1015.3
20260901031601 14 197 0.0 0.0 0.00 0.00 0.00 98 1015.4
20260901031326 14 197 0.0 0.0 0.00 0.00 0.00 98 1015.6
20260901031305 14 197 0.0 0.0 0.00 0.00 0.00 98 1015.4
20260901031248 14 197 0.0 0.0 0.00 0.00 0.00 98 1015.2
20260901031013 14 197 0.0 0.0 0.00 0.00 0.00 98 1015.4
20260901030712 14 197 0.0 0.0 0.00 0.00 0.00 98 1015.3
20260901030652 14 197 0.0 0.0 0.00 0.00 0.00 98 1015.4
20260901030552 14 197 0.0 0.0 0.00 0.00 0.00 98 1015.5
20260901030452 14 197 0.0 0.0 0.00 0.00 0.00 98 1015.4
20260901030353 14 197 0.0 0.0 0.00 0.00 0.00 98 1015.2
20260901030253 14 197 0.0 0.0 0.00 0.00 0.00 98 1015.3
20260901030212 14 197 0.0 0.0 0.00 0.00 0.00 98 1015.3
20260901030152 14 197 0.0 0.0 0.00 0.00 0.00 98 1015.2
20260901030052 14 197 0.0 0.0 0.00 0.00 0.00 98 1015.1
20260901025955 14 197 0.0 0.0 0.00 0.00 0.00 98 1015.5
20260901025939 14 197 0.0 0.0 0.00 0.00 0.00 98 1015.4
20260901025906 14 197 0.0 0.0 0.00 0.00 0.00 98 1015.5
20260901025552 14 197 0.0 0.0 0.00 0.00 0.00 98 1015.4
20260901025452 14 197 0.0 0.0 0.00 0.00 0.00 98 1015.4
20260901025352 14 197 0.0 0.0 0.00 0.00 0.00 98 1015.3
20260901025306 15 197 0.0 0.0 0.00 0.00 0.00 97 1015.3
20260901025258 14 197 0.0 0.0 0.00 0.00 0.00 97 1015.4
20260901025244 14 197 0.0 0.0 0.00 0.00 0.00 98 1015.4
20260901025237 14 197 0.0 0.0 0.00 0.00 0.00 98 1015.3
20260901025222 14 197 0.0 0.0 0.00 0.00 0.00 97 1015.3
20260901025208 14 197 0.0 0.0 0.00 0.00 0.00 97 1015.6
20260901025154 14 197 0.0 0.0 0.00 0.00 0.00 97 1015.4
20260901025121 14 197 0.0 0.0 0.00 0.00 0.00 97 1015.4
20260901024853 14 197 0.0 0.0 0.00 0.00 0.00 97 1015.6
20260901024838 14 197 0.0 0.0 0.00 0.00 0.00 97 1015.3
20260901024822 14 197 0.0 0.0 0.00 0.00 0.00 97 1015.2
20260901024807 14 197 0.0 0.0 0.00 0.00 0.00 97 1015.4
20260901024752 15 197 0.0 0.0 0.00 0.00 0.00 97 1015.4
20260901024303 15 197 0.0 0.0 0.00 0.00 0.00 97 1015.1
20260901024247 15 197 0.0 0.0 0.00 0.00 0.00 97 1015.4
20260901024215 15 197 0.0 0.0 0.00 0.00 0.00 97 1015.3
20260901024208 15 197 0.0 0.0 0.00 0.00 0.00 97 1015.1
20260901024152 15 197 0.0 0.0 0.00 0.00 0.00 97 1015.4
20260901023657 15 196 0.0 0.0 0.00 0.00 0.00 97 1015.3
20260901023432 15 197 0.0 0.0 0.00 0.00 0.00 97 1015.4
20260901022852 15 197 0.0 0.0 0.00 0.00 0.00 97 1015.3
20260901022828 15 197 0.0 0.0 0.00 0.00 0.00 97 1015.3
20260901022812 15 197 0.0 0.0 0.00 0.00 0.00 97 1015.3
20260901022804 15 197 0.0 0.0 0.00 0.00 0.00 97 1015.5
20260901022748 15 197 0.0 0.0 0.00 0.00 0.00 97 1015.3
20260901022513 15 197 0.0 0.0 0.00 0.00 0.00 97 1015.5
20260901022443 15 197 0.0 0.0 0.00 0.00 0.00 97 1015.3
20260901022434 15 197 0.0 0.0 0.00 0.00 0.00 97 1015.5
20260901021929 15 196 0.0 0.0 0.00 0.00 0.00 96 1015.2
20260901021856 15 196 0.0 0.0 0.00 0.00 0.00 96 1015.2
20260901021849 15 196 0.0 0.0 0.00 0.00 0.00 96 1015.5
20260901021613 15 197 0.0 0.0 0.00 0.00 0.00 96 1015.3
20260901021235 15 197 0.0 0.0 0.00 0.00 0.00 96 1015.4
20260901021227 15 197 0.0 0.0 0.00 0.00 0.00 96 1015.4
20260901021212 15 197 0.0 0.0 0.00 0.00 0.00 96 1015.2
20260901020852 15 197 0.0 0.0 0.00 0.00 0.00 96 1015.2
20260901020752 15 196 0.0 0.0 0.00 0.00 0.00 95 1015.4
20260901020725 15 197 0.0 0.0 0.00 0.00 0.00 95 1015.4
20260901020653 15 197 0.0 0.0 0.00 0.00 0.00 95 1015.4
20260901020552 15 197 0.0 0.0 0.00 0.00 0.00 95 1015.5
20260901020452 15 197 0.0 0.0 0.00 0.00 0.00 95 1015.4
20260901020352 15 197 0.0 0.0 0.00 0.00 0.00 95 1015.4
20260901020252 15 197 0.0 0.0 0.00 0.00 0.00 95 1015.6
20260901020212 15 197 0.0 0.0 0.00 0.00 0.00 95 1015.6
20260901020153 15 197 0.0 0.0 0.00 0.00 0.00 95 1015.4
20260901020127 15 197 0.0 0.0 0.00 0.00 0.00 95 1015.5
20260901020112 15 197 0.0 0.0 0.00 0.00 0.00 95 1015.5
20260901015801 16 197 0.0 0.0 0.00 0.00 0.00 94 1015.5
20260901015756 15 197 0.0 0.0 0.00 0.00 0.00 95 1015.5
20260901015740 15 196 0.0 0.0 0.00 0.00 0.00 95 1015.5
20260901015732 15 197 0.0 0.0 0.00 0.00 0.00 95 1015.4
20260901015715 15 197 0.0 0.0 0.00 0.00 0.00 94 1015.6
20260901015659 16 197 0.0 0.0 0.00 0.00 0.00 94 1015.4
20260901015644 16 197 0.0 0.0 0.00 0.00 0.00 94 1015.3
20260901015613 16 197 0.0 0.0 0.00 0.00 0.00 94 1015.2
20260901015605 16 197 0.0 0.0 0.00 0.00 0.00 94 1015.5
20260901015330 16 197 0.0 0.0 0.00 0.00 0.00 94 1015.3
20260901015313 16 197 0.0 0.0 0.00 0.00 0.00 94 1015.2
20260901015257 16 197 0.0 0.0 0.00 0.00 0.00 94 1015.5
20260901015028 16 197 0.0 0.0 0.00 0.00 0.00 94 1015.1
20260901014752 16 197 0.0 0.0 0.00 0.00 0.00 94 1015.3
20260901014504 16 197 0.0 0.0 0.00 0.00 0.00 94 1015.3
20260901014456 16 197 0.0 0.0 0.00 0.00 0.00 94 1015.3
20260901014221 16 197 0.0 0.0 0.00 0.00 0.00 94 1015.1
20260901014205 16 197 0.0 0.0 0.00 0.00 0.00 94 1015.1
20260901014132 16 197 0.0 0.0 0.00 0.00 0.00 94 1015.2
20260901013904 16 197 0.0 0.0 0.00 0.00 0.00 94 1014.9
20260901013629 16 197 0.0 0.0 0.00 0.00 0.00 93 1015.4
20260901013559 16 197 0.0 0.0 0.00 0.00 0.00 93 1015.3
20260901013331 16 197 0.0 0.0 0.00 0.00 0.00 93 1015.2
20260901013057 16 197 0.0 0.0 0.00 0.00 0.00 93 1015.2
20260901013025 16 197 0.0 0.0 0.00 0.00 0.00 93 1015.1
20260901012452 16 197 0.0 0.0 0.00 0.00 0.00 93 1015.2
20260901012353 16 197 0.0 0.0 0.00 0.00 0.00 93 1015.1
20260901012251 16 197 0.0 0.0 0.00 0.00 0.00 93 1015.4
20260901012213 16 197 0.0 0.0 0.00 0.00 0.00 93 1015.4
20260901012152 16 197 0.0 0.0 0.00 0.00 0.00 93 1015.4
20260901012052 16 196 0.0 0.0 0.00 0.00 0.00 93 1015.2
20260901011953 16 197 0.0 0.0 0.00 0.00 0.00 93 1015.5
20260901011852 16 197 0.0 0.0 0.00 0.00 0.00 93 1015.5
20260901011752 16 197 0.0 0.0 0.00 0.00 0.00 93 1015.4
20260901011712 16 197 0.0 0.0 0.00 0.00 0.00 93 1015.4
20260901011651 16 196 0.0 0.0 0.00 0.00 0.00 93 1015.3
20260901011552 16 199 0.0 0.0 0.00 0.00 0.00 93 1015.5
20260901011452 17 199 0.0 0.0 0.00 0.00 0.00 93 1015.5
20260901011353 17 199 0.0 0.0 0.00 0.00 0.00 93 1015.3
20260901011251 17 199 0.0 0.0 0.00 0.00 0.00 93 1015.5
20260901011212 17 199 0.0 0.0 0.00 0.00 0.00 93 1015.5
20260901011152 17 199 0.0 0.0 0.00 0.00 0.00 93 1015.6
20260901011053 17 199 0.0 0.0 0.00 0.00 0.00 93 1015.5
20260901010954 17 199 0.0 0.0 0.00 0.00 0.00 93 1015.5
20260901010853 17 199 0.0 0.0 0.00 0.00 0.00 93 1015.6
20260901010712 17 199 0.0 0.0 0.00 0.00 0.00 93 1015.5
20260901010640 17 199 0.0 0.0 0.00 0.00 0.00 93 1015.2
20260901010540 17 199 0.0 0.0 0.00 0.00 0.00 93 1015.6
20260901010503 17 199 0.0 0.0 0.00 0.00 0.00 93 1015.4
20260901010448 17 199 0.0 0.0 0.00 0.00 0.00 93 1015.5
20260901010215 17 199 0.0 0.0 0.00 0.00 0.00 94 1015.4
20260901010205 17 199 0.0 0.0 0.00 0.00 0.00 94 1015.6
20260901010149 17 200 0.0 0.0 0.00 0.00 0.00 94 1015.4
20260901005828 17 193 0.0 0.0 0.00 0.00 0.00 94 1015.3
20260901005712 17 195 0.0 0.0 0.00 0.00 0.00 94 1015.0
20260901005628 17 201 0.0 0.0 0.00 0.00 0.00 94 1015.4
20260901005528 17 201 0.0 0.0 0.00 0.00 0.00 94 1015.5
20260901005428 17 203 0.0 0.0 0.00 0.00 0.00 94 1015.3
20260901005329 17 200 0.0 0.0 0.00 0.00 0.00 95 1015.4
20260901005216 17 198 0.0 0.0 0.00 0.00 0.00 95 1015.4
20260901005117 16 198 0.0 0.0 0.00 0.00 0.00 95 1015.3
20260901005016 16 198 0.0 0.0 0.00 0.00 0.00 95 1015.2
20260901004957 16 198 0.0 0.0 0.00 0.00 0.00 95 1015.5
20260901004941 17 198 0.0 0.0 0.00 0.00 0.00 95 1015.3
20260901004714 17 198 0.0 0.0 0.00 0.00 0.00 95 1015.3
20260901004405 17 197 0.0 0.0 0.00 0.00 0.00 95 1015.4
20260901004305 17 197 0.0 0.0 0.00 0.00 0.00 95 1015.4
20260901004242 17 198 0.0 0.0 0.00 0.00 0.00 95 1015.3
20260901004226 17 199 0.0 0.0 0.00 0.00 0.00 95 1015.5
20260901004210 17 199 0.0 0.0 0.00 0.00 0.00 95 1015.2
20260901004153 16 199 0.0 0.0 0.00 0.00 0.00 95 1015.2
20260901003927 16 199 0.0 0.0 0.00 0.00 0.00 95 1015.2
20260901003605 16 199 0.0 0.0 0.00 0.00 0.00 95 1015.4
20260901003505 16 199 0.0 0.0 0.00 0.00 0.00 95 1015.4
20260901003406 16 199 0.0 0.0 0.00 0.00 0.00 96 1015.6
20260901003305 16 199 0.0 0.0 0.00 0.00 0.00 96 1015.5
20260901003229 16 199 0.0 0.0 0.00 0.00 0.00 96 1015.5
20260901003213 16 199 0.0 0.0 0.00 0.00 0.00 96 1015.5
20260901002854 16 199 0.0 0.0 0.00 0.00 0.00 96 1015.3
20260901002754 16 199 0.0 0.0 0.00 0.00 0.00 96 1015.5
20260901002654 16 199 0.0 0.0 0.00 0.00 0.00 96 1015.5
20260901002633 16 199 0.0 0.0 0.00 0.00 0.00 96 1015.3
20260901002625 16 199 0.0 0.0 0.00 0.00 0.00 96 1015.4
20260901002610 16 199 0.0 0.0 0.00 0.00 0.00 96 1015.5
20260901002555 16 199 0.0 0.0 0.00 0.00 0.00 96 1015.4
20260901002328 16 201 0.0 0.0 0.00 0.00 0.00 96 1015.5
20260901002311 16 201 0.0 0.0 0.00 0.00 0.00 96 1015.6
20260901002254 16 201 0.0 0.0 0.00 0.00 0.00 96 1015.3
20260901002019 16 202 0.0 0.0 0.00 0.00 0.00 96 1015.4
20260901002002 16 199 0.0 0.0 0.00 0.00 0.00 96 1015.3
20260901001654 16 200 0.0 0.0 0.00 0.00 0.00 96 1015.7
20260901001553 16 200 0.0 0.0 0.00 0.00 0.00 96 1015.4
20260901001535 16 201 0.0 0.0 0.00 0.00 0.00 96 1015.4
20260901001519 16 201 0.0 0.0 0.00 0.00 0.00 96 1015.5
20260901001253 16 201 0.0 0.0 0.00 0.00 0.00 96 1015.5
20260901001236 16 198 0.0 0.0 0.00 0.00 0.00 98 1015.7
20260901001225 16 202 0.0 0.0 0.00 0.00 0.00 97 1015.3
20260901001209 16 200 0.0 0.0 0.00 0.00 0.00 97 1015.4
20260901001152 16 201 0.0 0.0 0.00 0.00 0.00 97 1015.3
20260901001135 16 201 0.0 0.0 0.00 0.00 0.00 97 1015.5
20260901000908 16 201 0.0 0.0 0.00 0.00 0.00 97 1015.1
20260901000851 16 201 0.0 0.0 0.00 0.00 0.00 97 1015.6
20260901000625 16 214 0.0 1.6 0.00 0.00 0.00 97 1015.7
20260901000610 16 198 0.0 1.6 0.00 0.00 0.00 97 1015.5
20260901000554 16 273 0.0 1.6 0.00 0.00 0.00 97 1015.3
20260901000328 16 199 0.0 1.6 0.00 0.00 0.00 97 1015.5
20260901000314 16 199 0.0 1.6 0.00 0.00 0.00 97 1015.4
20260901000256 16 200 0.0 1.6 0.00 0.00 0.00 97 1015.6
20260901000021 16 202 0.0 1.6 0.00 0.00 0.00 98 1015.6
20260831235959 16 204 0.0 1.6 0.00 0.00 0.00 98 1015.6
20260831235941 16 207 0.0 1.6 0.00 0.00 0.00 98 1015.6
20260831235925 16 199 0.0 1.6 0.00 0.00 0.00 98 1015.7
20260831235909 16 200 0.0 1.6 0.00 0.00 0.00 98 1015.6
20260831235852 16 197 0.0 1.6 0.00 0.00 0.00 98 1015.6
20260831235830 16 203 0.0 1.6 0.00 0.00 0.00 98 1015.8
20260831235814 16 200 0.0 0.0 0.00 0.00 0.00 98 1015.5
20260831235317 16 199 0.0 0.0 0.00 0.00 0.00 98 1015.6
20260831235255 16 196 0.0 0.0 0.00 0.00 0.00 98 1015.6
20260831235017 16 198 0.0 0.0 0.00 0.00 0.00 98 1015.6
20260831235003 16 196 0.0 0.0 0.00 0.00 0.00 98 1015.6
20260831234947 16 196 0.0 0.0 0.00 0.00 0.00 98 1015.5
20260831234924 16 196 0.0 0.0 0.00 0.00 0.00 98 1015.8
20260831234909 16 198 0.0 0.0 0.00 0.00 0.00 98 1015.6
20260831234854 16 197 0.0 0.0 0.00 0.00 0.00 98 1015.6
20260831234359 16 198 0.0 0.0 0.00 0.00 0.00 98 1015.7
20260831233649 15 198 0.0 0.0 0.00 0.00 0.00 98 1015.7
20260831233633 15 198 0.0 0.0 0.00 0.00 0.00 98 1015.8
20260831233611 15 198 0.0 0.0 0.00 0.00 0.00 98 1015.7
20260831233116 15 198 0.0 0.0 0.00 0.00 0.00 98 1015.9
20260831233100 15 198 0.0 0.0 0.00 0.00 0.00 98 1015.9
20260831233038 15 198 0.0 0.0 0.00 0.00 0.00 98 1015.6
20260831233020 15 198 0.0 0.0 0.00 0.00 0.00 99 1015.7
20260831233005 15 198 0.0 0.0 0.00 0.00 0.00 99 1015.7
20260831232730 15 198 0.0 0.0 0.00 0.00 0.00 98 1015.8
20260831232706 15 198 0.0 0.0 0.00 0.00 0.00 98 1015.7
20260831232418 15 198 0.0 0.0 0.00 0.00 0.00 98 1015.6
20260831232142 15 198 0.0 0.0 0.00 0.00 0.00 98 1015.8
20260831231915 15 198 0.0 0.0 0.00 0.00 0.00 98 1015.7
20260831231630 15 198 0.0 0.0 0.00 0.00 0.00 98 1015.8
20260831231614 15 198 0.0 0.0 0.00 0.00 0.00 98 1015.8
20260831231253 15 198 0.0 0.0 0.00 0.00 0.00 98 1015.7
20260831231230 15 198 0.0 0.0 0.00 0.00 0.00 98 1015.5
20260831231214 15 198 0.0 0.0 0.00 0.00 0.00 98 1015.6
20260831231159 15 198 0.0 0.0 0.00 0.00 0.00 98 1015.6
20260831230915 15 198 0.0 0.0 0.00 0.00 0.00 98 1015.9
20260831230553 15 198 0.0 0.0 0.00 0.00 0.00 98 1016.0
20260831230452 15 198 0.0 0.0 0.00 0.00 0.00 98 1015.9
20260831230353 15 198 0.0 0.0 0.00 0.00 0.00 98 1015.9
20260831230253 15 198 0.0 0.0 0.00 0.00 0.00 98 1015.9
20260831230239 15 198 0.0 0.0 0.00 0.00 0.00 98 1015.7
20260831230229 15 198 0.0 0.0 0.00 0.00 0.00 98 1015.9
20260831230213 15 198 0.0 0.0 0.00 0.00 0.00 98 1016.0
20260831230157 15 198 0.0 0.0 0.00 0.00 0.00 98 1015.7
20260831230141 15 198 0.0 0.0 0.00 0.00 0.00 98 1015.8
20260831230125 15 198 0.0 0.0 0.00 0.00 0.00 98 1015.7
20260831225624 15 198 0.0 0.0 0.00 0.00 0.00 98 1015.7
20260831225610 15 198 0.0 0.0 0.00 0.00 0.00 98 1015.6
20260831225555 15 198 0.0 0.0 0.00 0.00 0.00 98 1015.8
20260831225329 15 198 0.0 0.0 0.00 0.00 0.00 98 1015.6
20260831225313 15 198 0.0 0.0 0.00 0.00 0.00 98 1015.9
20260831225258 15 198 0.0 0.0 0.00 0.00 0.00 98 1016.0
20260831225242 15 198 0.0 0.0 0.00 0.00 0.00 98 1015.7
20260831224754 15 198 0.0 0.0 0.00 0.00 0.00 98 1016.0
20260831224653 15 198 0.0 0.0 0.00 0.00 0.00 98 1015.8
20260831224553 15 198 0.0 0.0 0.00 0.00 0.00 98 1015.8
20260831224454 15 198 0.0 0.0 0.00 0.00 0.00 98 1015.8
20260831224353 15 198 0.0 0.0 0.00 0.00 0.00 98 1015.7
20260831224254 15 198 0.0 0.0 0.00 0.00 0.00 98 1015.8
20260831224154 15 198 0.0 0.0 0.00 0.00 0.00 98 1015.7
20260831224055 15 198 0.0 0.0 0.00 0.00 0.00 98 1015.9
20260831224045 15 198 0.0 0.0 0.00 0.00 0.00 98 1015.9
20260831224036 15 198 0.0 0.0 0.00 0.00 0.00 98 1015.7
20260831224021 15 198 0.0 0.0 0.00 0.00 0.00 98 1015.7
20260831224004 15 198 0.0 0.0 0.00 0.00 0.00 98 1015.9
20260831223653 15 198 0.0 0.0 0.00 0.00 0.00 98 1015.7
20260831223553 15 198 0.0 0.0 0.00 0.00 0.00 98 1015.6
20260831223454 15 198 0.0 0.0 0.00 0.00 0.00 98 1016.0
20260831223353 15 198 0.0 0.0 0.00 0.00 0.00 98 1015.8
20260831223254 15 198 0.0 0.0 0.00 0.00 0.00 98 1015.8
20260831223153 15 198 0.0 0.0 0.00 0.00 0.00 98 1015.9
20260831223122 15 198 0.0 0.0 0.00 0.00 0.00 98 1015.9
20260831223117 15 198 0.0 0.0 0.00 0.00 0.00 98 1015.9
20260831223110 15 198 0.0 0.0 0.00 0.00 0.00 98 1015.7
20260831223053 15 198 0.0 0.0 0.00 0.00 0.00 98 1015.8
20260831223038 15 198 0.0 0.0 0.00 0.00 0.00 98 1015.7
20260831223021 15 198 0.0 0.0 0.00 0.00 0.00 98 1015.9
20260831222754 15 198 0.0 0.0 0.00 0.00 0.00 98 1016.0
20260831222738 15 198 0.0 0.0 0.00 0.00 0.00 98 1015.7
20260831222723 15 198 0.0 0.0 0.00 0.00 0.00 98 1015.8
20260831222707 15 198 0.0 0.0 0.00 0.00 0.00 98 1016.0
20260831222645 15 198 0.0 0.0 0.00 0.00 0.00 98 1015.8
20260831222629 15 198 0.0 0.0 0.00 0.00 0.00 98 1015.9
20260831222614 15 198 0.0 0.0 0.00 0.00 0.00 98 1015.8
20260831222338 15 198 0.0 0.0 0.00 0.00 0.00 98 1015.9
20260831221848 15 198 0.0 0.0 0.00 0.00 0.00 98 1015.8
20260831221832 15 198 0.0 0.0 0.00 0.00 0.00 98 1015.9
20260831221329 15 198 0.0 0.0 0.00 0.00 0.00 97 1015.9
20260831221313 15 198 0.0 0.0 0.00 0.00 0.00 97 1015.6
20260831220953 15 198 0.0 0.0 0.00 0.00 0.00 97 1015.7
20260831220853 15 198 0.0 0.0 0.00 0.00 0.00 97 1015.9
20260831220753 15 198 0.0 0.0 0.00 0.00 0.00 97 1015.7
20260831220653 15 198 0.0 0.0 0.00 0.00 0.00 97 1015.7
20260831220552 15 198 0.0 0.0 0.00 0.00 0.00 97 1015.6
20260831220535 15 198 0.0 0.0 0.00 0.00 0.00 97 1015.8
20260831220519 15 198 0.0 0.0 0.00 0.00 0.00 97 1015.8
20260831220254 15 198 0.0 0.0 0.00 0.00 0.00 97 1015.7
20260831220154 15 198 0.0 0.0 0.00 0.00 0.00 97 1015.9
20260831220053 15 198 0.0 0.0 0.00 0.00 0.00 97 1015.6
20260831215953 15 198 0.0 0.0 0.00 0.00 0.00 97 1015.7
20260831215852 15 198 0.0 0.0 0.00 0.00 0.00 97 1015.7
20260831215753 15 198 0.0 0.0 0.00 0.00 0.00 97 1015.6
20260831215654 15 198 0.0 0.0 0.00 0.00 0.00 97 1015.7
20260831215553 15 198 0.0 0.0 0.00 0.00 0.00 97 1015.6
20260831215453 15 198 0.0 0.0 0.00 0.00 0.00 97 1015.5
20260831215434 15 198 0.0 0.0 0.00 0.00 0.00 97 1015.7
20260831215408 15 198 0.0 0.0 0.00 0.00 0.00 97 1015.6
20260831215054 15 198 0.0 0.0 0.00 0.00 0.00 97 1015.9
20260831214953 15 198 0.0 0.0 0.00 0.00 0.00 96 1015.6
20260831214851 15 198 0.0 0.0 0.00 0.00 0.00 96 1015.8
20260831214722 15 198 0.0 0.0 0.00 0.00 0.00 96 1015.6
20260831214649 15 198 0.0 0.0 0.00 0.00 0.00 96 1015.7
20260831214549 15 198 0.0 0.0 0.00 0.00 0.00 96 1015.6
20260831214526 16 198 0.0 0.0 0.00 0.00 0.00 96 1015.7
20260831214511 16 198 0.0 0.0 0.00 0.00 0.00 96 1015.6
20260831214221 16 198 0.0 0.0 0.00 0.00 0.00 96 1015.5
20260831214149 16 198 0.0 0.0 0.00 0.00 0.00 96 1015.6
20260831214049 16 198 0.0 0.0 0.00 0.00 0.00 96 1015.7
20260831213949 16 198 0.0 0.0 0.00 0.00 0.00 96 1015.9
20260831213850 16 198 0.0 0.0 0.00 0.00 0.00 96 1015.7
20260831213721 16 198 0.0 0.0 0.00 0.00 0.00 96 1015.6
20260831213649 16 198 0.0 0.0 0.00 0.00 0.00 96 1015.6
20260831213550 16 198 0.0 0.0 0.00 0.00 0.00 96 1015.8
20260831213450 16 198 0.0 0.0 0.00 0.00 0.00 96 1015.6
20260831213349 16 198 0.0 0.0 0.00 0.00 0.00 96 1015.8
20260831213235 16 198 0.0 0.0 0.00 0.00 0.00 96 1015.5
20260831213230 16 200 0.0 0.0 0.00 0.00 0.00 94 1015.0
20260831213222 16 198 0.0 0.0 0.00 0.00 0.00 96 1015.9
20260831213215 16 198 0.0 0.0 0.00 0.00 0.00 96 1015.3
20260831213208 16 198 0.0 0.0 0.00 0.00 0.00 96 1015.9
20260831213154 16 198 0.0 0.0 0.00 0.00 0.00 96 1015.6
20260831213138 16 198 0.0 0.0 0.00 0.00 0.00 96 1015.7
20260831212917 16 196 0.0 0.0 0.00 0.00 0.00 96 1015.4
20260831212911 16 200 0.0 0.0 0.00 0.00 0.00 94 1015.4
20260831212904 16 198 0.0 0.0 0.00 0.00 0.00 96 1015.8
20260831212832 16 198 0.0 0.0 0.00 0.00 0.00 96 1015.7
20260831212823 16 198 0.0 0.0 0.00 0.00 0.00 96 1015.7
20260831212808 16 198 0.0 0.0 0.00 0.00 0.00 96 1015.9
20260831212752 16 198 0.0 0.0 0.00 0.00 0.00 96 1015.4
20260831212736 16 198 0.0 0.0 0.00 0.00 0.00 96 1015.7
20260831212721 16 198 0.0 0.0 0.00 0.00 0.00 96 1015.3
20260831212453 16 198 0.0 0.0 0.00 0.00 0.00 96 1015.3
20260831212437 16 198 0.0 0.0 0.00 0.00 0.00 96 1015.2
20260831212422 16 198 0.0 0.0 0.00 0.00 0.00 96 1015.3
20260831212407 16 198 0.0 0.0 0.00 0.00 0.00 96 1015.5
20260831212336 16 198 0.0 0.0 0.00 0.00 0.00 96 1015.4
20260831212327 16 198 0.0 0.0 0.00 0.00 0.00 96 1015.2
20260831212311 16 198 0.0 0.0 0.00 0.00 0.00 96 1015.5
20260831212256 16 198 0.0 0.0 0.00 0.00 0.00 96 1015.5
20260831212242 16 198 0.0 0.0 0.00 0.00 0.00 96 1015.5
20260831212227 16 198 0.0 0.0 0.00 0.00 0.00 96 1015.5
20260831211519 16 198 0.0 0.0 0.00 0.00 0.00 96 1015.5
20260831211503 16 197 0.0 0.0 0.00 0.00 0.00 96 1015.3
20260831210754 16 198 0.0 0.0 0.00 0.00 0.00 96 1015.4
20260831210532 17 200 0.0 0.0 0.00 0.00 0.00 92 1015.1
20260831210522 16 198 0.0 0.0 0.00 0.00 0.00 96 1015.4
20260831210506 16 198 0.0 0.0 0.00 0.00 0.00 95 1015.3
20260831210438 16 198 0.0 0.0 0.00 0.00 0.00 95 1015.7
20260831210207 16 198 0.0 0.0 0.00 0.00 0.00 95 1015.6
20260831210152 16 200 0.0 0.0 0.00 0.00 0.00 95 1015.5
20260831210136 16 200 0.0 0.0 0.00 0.00 0.00 95 1015.4
20260831210121 16 200 0.0 0.0 0.00 0.00 0.00 95 1015.5
20260831210105 16 200 0.0 0.0 0.00 0.00 0.00 94 1015.5
20260831210047 16 200 0.0 0.0 0.00 0.00 0.00 94 1015.6
20260831210032 16 200 0.0 0.0 0.00 0.00 0.00 94 1015.6
20260831210016 16 200 0.0 0.0 0.00 0.00 0.00 94 1015.6
20260831205726 16 200 0.0 0.0 0.00 0.00 0.00 94 1015.4
20260831205717 16 200 0.0 0.0 0.00 0.00 0.00 94 1015.6
20260831205222 16 200 0.0 0.0 0.00 0.00 0.00 94 1015.5
20260831205206 16 200 0.0 0.0 0.00 0.00 0.00 94 1015.4
20260831204938 16 200 0.0 0.0 0.00 0.00 0.00 94 1015.4
20260831204922 16 200 0.0 0.0 0.00 0.00 0.00 94 1015.3
20260831204907 16 200 0.0 0.0 0.00 0.00 0.00 94 1015.2
20260831204851 16 200 0.0 0.0 0.00 0.00 0.00 94 1015.4
20260831204835 16 200 0.0 0.0 0.00 0.00 0.00 94 1015.0
20260831204608 16 200 0.0 0.0 0.00 0.00 0.00 94 1015.2
20260831204553 16 200 0.0 0.0 0.00 0.00 0.00 94 1015.2
20260831204538 16 200 0.0 0.0 0.00 0.00 0.00 94 1015.2
20260831204521 17 200 0.0 0.0 0.00 0.00 0.00 93 1015.3
20260831204450 17 200 0.0 0.0 0.00 0.00 0.00 93 1015.1
20260831204441 17 200 0.0 0.0 0.00 0.00 0.00 93 1015.2
20260831204425 17 200 0.0 0.0 0.00 0.00 0.00 93 1015.1
20260831203713 17 200 0.0 0.0 0.00 0.00 0.00 93 1015.1
20260831203704 17 200 0.0 0.0 0.00 0.00 0.00 93 1015.1
20260831203648 17 200 0.0 0.0 0.00 0.00 0.00 93 1015.0
20260831203632 17 200 0.0 0.0 0.00 0.00 0.00 93 1015.0
20260831203616 17 200 0.0 0.0 0.00 0.00 0.00 93 1015.1
20260831203341 17 200 0.0 0.0 0.00 0.00 0.00 92 1015.1
20260831203332 17 200 0.0 0.0 0.00 0.00 0.00 92 1014.9
20260831203056 17 200 0.0 0.0 0.00 0.00 0.00 92 1015.1
20260831203040 17 200 0.0 0.0 0.00 0.00 0.00 92 1015.3
20260831202807 17 200 0.0 0.0 0.00 0.00 0.00 92 1015.2
20260831202539 17 200 0.0 0.0 0.00 0.00 0.00 92 1015.1
20260831202522 17 200 0.0 0.0 0.00 0.00 0.00 92 1015.0
20260831202506 17 200 0.0 0.0 0.00 0.00 0.00 92 1015.3
20260831202450 17 200 0.0 0.0 0.00 0.00 0.00 92 1015.1
20260831202221 17 200 0.0 0.0 0.00 0.00 0.00 92 1015.1
20260831202204 17 200 0.0 0.0 0.00 0.00 0.00 92 1015.1
20260831202149 17 200 0.0 0.0 0.00 0.00 0.00 92 1015.0
20260831201859 17 200 0.0 0.0 0.00 0.00 0.00 92 1015.0
20260831201849 17 200 0.0 0.0 0.00 0.00 0.00 92 1015.2
20260831201833 17 200 0.0 0.0 0.00 0.00 0.00 92 1015.2
20260831201818 17 200 0.0 0.0 0.00 0.00 0.00 92 1015.1
20260831201802 17 200 0.0 0.0 0.00 0.00 0.00 92 1015.0
20260831201747 17 200 0.0 0.0 0.00 0.00 0.00 92 1015.2
20260831201732 17 200 0.0 0.0 0.00 0.00 0.00 91 1015.2
20260831201024 17 200 0.0 0.0 0.00 0.00 0.00 91 1014.9
20260831200955 17 200 0.0 0.0 0.00 0.00 0.00 91 1014.9
20260831200945 17 200 0.0 0.0 0.00 0.00 0.00 91 1015.1
20260831200010 17 200 0.0 0.0 0.00 0.00 0.00 91 1014.9
20260831195739 17 200 0.0 0.0 0.00 0.00 0.00 91 1015.0
20260831195501 17 200 0.0 0.0 0.00 0.00 0.00 91 1014.8
20260831195216 17 200 0.0 0.0 0.00 0.00 0.00 91 1015.0
20260831195143 17 200 0.0 0.0 0.00 0.00 0.00 91 1014.8
20260831195044 17 200 0.0 0.0 0.00 0.00 0.00 90 1014.9
20260831194943 17 200 0.0 0.0 0.00 0.00 0.00 90 1015.1
20260831194844 17 200 0.0 0.0 0.00 0.00 0.00 90 1015.1
20260831194715 17 200 0.0 0.0 0.00 0.00 0.00 90 1015.1
20260831194643 17 200 0.0 0.0 0.00 0.00 0.00 90 1014.9
20260831194543 17 200 0.0 0.0 0.00 0.00 0.00 90 1014.8
20260831194520 17 200 0.0 0.0 0.00 0.00 0.00 90 1015.0
20260831194503 17 200 0.0 0.0 0.00 0.00 0.00 90 1014.8
20260831194216 18 200 0.0 0.0 0.00 0.00 0.00 90 1014.9
20260831194158 18 200 0.0 0.0 0.00 0.00 0.00 90 1015.0
20260831194154 18 200 0.0 0.0 0.00 0.00 0.00 89 1015.0
20260831194149 18 200 0.0 0.0 0.00 0.00 0.00 90 1015.1
20260831194133 18 200 0.0 0.0 0.00 0.00 0.00 90 1014.8
20260831194117 18 200 0.0 0.0 0.00 0.00 0.00 90 1014.7
20260831194101 18 200 0.0 0.0 0.00 0.00 0.00 90 1014.9
20260831194046 18 200 0.0 0.0 0.00 0.00 0.00 90 1015.0
20260831193817 18 200 0.0 0.0 0.00 0.00 0.00 90 1014.9
20260831193802 18 200 0.0 0.0 0.00 0.00 0.00 90 1014.9
20260831193746 18 200 0.0 0.0 0.00 0.00 0.00 90 1014.9
20260831193731 18 200 0.0 0.0 0.00 0.00 0.00 90 1014.7
20260831193458 18 200 0.0 0.0 0.00 0.00 0.00 90 1014.9
20260831193229 18 200 0.0 0.0 0.00 0.00 0.00 89 1015.1
20260831193213 18 200 0.0 0.0 0.00 0.00 0.00 89 1015.0
20260831193157 18 200 0.0 0.0 0.00 0.00 0.00 89 1014.9
20260831192643 18 200 0.0 0.0 0.00 0.00 0.00 89 1014.8
20260831192620 18 200 0.0 0.0 0.00 0.00 0.00 89 1014.9
20260831192604 18 200 0.0 0.0 0.00 0.00 0.00 89 1015.1
20260831192547 18 200 0.0 0.0 0.00 0.00 0.00 89 1014.9
20260831192313 18 200 0.0 0.0 0.00 0.00 0.00 89 1014.8
20260831192305 18 200 0.0 0.0 0.00 0.00 0.00 89 1015.0
20260831192011 18 200 0.0 0.0 0.00 0.00 0.00 89 1014.9
20260831192004 18 200 0.0 0.0 0.00 0.00 0.00 89 1014.8
20260831191948 18 200 0.0 0.0 0.00 0.00 0.00 89 1014.9
20260831191933 18 200 0.0 0.0 0.00 0.00 0.00 89 1014.9
20260831191642 18 200 0.0 0.0 0.00 0.00 0.00 89 1015.0
20260831191618 18 200 0.0 0.0 0.00 0.00 0.00 89 1015.0
20260831191602 18 200 0.0 0.0 0.00 0.00 0.00 88 1015.0
20260831191215 18 200 0.0 0.0 0.00 0.00 0.00 88 1015.0
20260831191143 18 200 0.0 0.0 0.00 0.00 0.00 88 1014.9
20260831191043 18 200 0.0 0.0 0.00 0.00 0.00 88 1014.9
20260831190943 18 200 0.0 0.0 0.00 0.00 0.00 88 1015.0
20260831190842 18 200 0.0 0.0 0.00 0.00 0.00 88 1014.6
20260831190812 18 200 0.0 0.0 0.00 0.00 0.00 88 1014.8
20260831190803 18 200 0.0 0.0 0.00 0.00 0.00 88 1014.9
20260831190443 18 200 0.0 0.0 0.00 0.00 0.00 87 1014.9
20260831190343 18 200 0.0 0.0 0.00 0.00 0.00 87 1015.0
20260831190215 18 200 0.0 0.0 0.00 0.00 0.00 87 1014.9
20260831190144 18 200 0.0 0.0 0.00 0.00 0.00 87 1014.9
20260831190119 18 200 0.0 0.0 0.00 0.00 0.00 87 1014.9
20260831185715 18 200 0.0 0.0 0.00 0.00 0.00 87 1014.8
20260831185643 19 200 0.0 0.0 0.00 0.00 0.00 87 1014.9
20260831185542 19 200 0.0 0.0 0.00 0.00 0.00 87 1014.8
20260831185444 19 200 0.0 0.0 0.00 0.00 0.00 87 1014.8
20260831185343 19 199 0.0 0.0 0.00 0.00 0.00 86 1014.8
20260831185231 19 199 0.0 0.0 0.00 0.00 0.00 86 1014.9
20260831185222 19 199 0.0 0.0 0.00 0.00 0.00 86 1014.6
20260831185206 19 199 0.0 0.0 0.00 0.00 0.00 86 1014.8
20260831185149 19 198 0.0 0.0 0.00 0.00 0.00 86 1014.7
20260831185133 19 198 0.0 0.0 0.00 0.00 0.00 86 1014.7
20260831184857 19 198 0.0 0.0 0.00 0.00 0.00 86 1014.8
20260831184543 19 198 0.0 0.0 0.00 0.00 0.00 86 1014.7
20260831184443 19 198 0.0 0.0 0.00 0.00 0.00 86 1014.7
20260831184343 19 190 0.0 0.0 0.00 0.00 0.00 86 1014.6
20260831184215 19 201 0.0 0.0 0.00 0.00 0.00 86 1014.5
20260831184143 19 201 0.0 0.0 0.00 0.00 0.00 85 1014.8
20260831184043 19 201 0.0 0.0 0.00 0.00 0.00 85 1014.8
20260831183943 19 201 0.0 0.0 0.00 0.00 0.00 85 1014.8
20260831183844 19 201 0.0 0.0 0.00 0.00 0.00 85 1014.7
20260831183808 19 201 0.0 0.0 0.00 0.00 0.00 85 1014.6
20260831183759 19 200 0.0 0.0 0.00 0.00 0.00 85 1014.6
20260831183742 19 200 0.0 0.0 0.00 0.00 0.00 85 1014.6
20260831183726 20 200 0.0 0.0 0.00 0.00 0.00 85 1014.9
20260831183215 20 199 0.0 1.6 0.00 0.00 0.00 84 1014.7
20260831183143 20 199 0.0 1.6 0.00 0.00 0.00 84 1014.8
20260831183044 20 200 0.0 1.6 0.00 0.00 0.00 84 1014.8
20260831182944 20 204 0.0 1.6 0.00 0.00 0.00 84 1014.6
20260831182843 20 199 0.0 1.6 0.00 0.00 0.00 84 1014.8
20260831182744 20 199 0.0 1.6 0.00 0.00 0.00 84 1014.8
20260831182715 20 196 0.0 1.6 0.00 0.00 0.00 84 1014.8
20260831182643 20 196 0.0 1.6 0.00 0.00 0.00 84 1014.8
20260831182542 20 196 0.0 1.6 0.00 0.00 0.00 84 1014.7
20260831182443 20 200 0.0 1.6 0.00 0.00 0.00 84 1014.7
20260831182343 20 200 0.0 1.6 0.00 0.00 0.00 84 1015.0
20260831182243 20 200 0.0 3.2 0.00 0.00 0.00 84 1014.8
20260831182215 20 199 0.0 3.2 0.00 0.00 0.00 84 1014.8
20260831182143 20 202 0.0 3.2 0.00 0.00 0.00 84 1014.7
20260831182043 20 200 0.0 3.2 0.00 0.00 0.00 84 1014.7
20260831181944 20 200 0.0 3.2 0.00 0.00 0.00 83 1014.8
20260831181844 20 198 0.0 3.2 0.00 0.00 0.00 83 1014.7
20260831181809 20 199 0.0 0.0 0.00 0.00 0.00 82 1014.9
20260831181803 20 201 0.0 3.2 0.00 0.00 0.00 83 1014.8
20260831181748 20 200 0.0 3.2 0.00 0.00 0.00 83 1014.8
20260831181738 20 201 0.0 3.2 0.00 0.00 0.00 83 1014.7
20260831181723 20 183 0.0 3.2 0.00 0.00 0.00 83 1014.7
20260831181708 20 194 0.0 3.2 0.00 0.00 0.00 83 1014.8
20260831181652 20 191 0.0 3.2 0.00 0.00 0.00 82 1014.7
20260831181133 20 199 0.0 0.0 0.00 0.00 0.00 82 1014.6
20260831181030 20 196 0.0 0.0 0.00 0.00 0.00 82 1014.6
20260831180931 20 196 0.0 0.0 0.00 0.00 0.00 81 1014.6
20260831180916 20 196 0.0 0.0 0.00 0.00 0.00 81 1014.3
20260831180846 20 196 0.0 0.0 0.00 0.00 0.00 81 1014.5
20260831180520 20 204 0.0 0.0 0.00 0.00 0.00 81 1014.2
20260831180421 20 196 0.0 0.0 0.00 0.00 0.00 81 1014.5
20260831180319 20 198 0.0 1.6 0.00 0.00 0.00 80 1014.2
20260831180218 20 196 0.0 1.6 0.00 0.00 0.00 80 1014.2
20260831180119 21 196 0.0 1.6 0.00 0.00 0.00 80 1014.2
20260831180019 21 193 0.0 1.6 0.00 0.00 0.00 80 1014.5